| time (UTC) | temp F | wind direction | speed MPH | gust MPH | rain 1hr in | rain 24hr in | rain mn in | humidity % | barometer mb |
| 20260505234122 | 52 | 50 | 12.0 | 16.0 | 0.00 | 0.00 | 0.00 | 71 | 1012.6 |
| 20260505234022 | 52 | 48 | 13.0 | 16.0 | 0.00 | 0.00 | 0.00 | 71 | 1012.6 |
| 20260505233922 | 52 | 48 | 14.0 | 16.0 | 0.00 | 0.00 | 0.00 | 71 | 1012.6 |
| 20260505233822 | 52 | 49 | 12.0 | 16.0 | 0.00 | 0.00 | 0.00 | 71 | 1012.6 |
| 20260505233722 | 52 | 45 | 12.0 | 13.0 | 0.00 | 0.00 | 0.00 | 71 | 1012.6 |
| 20260505233622 | 52 | 42 | 12.0 | 14.0 | 0.00 | 0.00 | 0.00 | 71 | 1012.6 |
| 20260505233522 | 52 | 33 | 13.0 | 18.0 | 0.00 | 0.00 | 0.00 | 71 | 1012.6 |
| 20260505233422 | 52 | 47 | 13.0 | 16.0 | 0.00 | 0.00 | 0.00 | 71 | 1012.6 |
| 20260505233322 | 52 | 48 | 14.0 | 17.0 | 0.00 | 0.00 | 0.00 | 71 | 1012.6 |
| 20260505233152 | 52 | 47 | 13.0 | 16.0 | 0.00 | 0.00 | 0.00 | 70 | 1012.7 |
| 20260505233052 | 52 | 48 | 14.0 | 16.0 | 0.00 | 0.00 | 0.00 | 70 | 1012.7 |
| 20260505232922 | 52 | 49 | 13.0 | 17.0 | 0.00 | 0.00 | 0.00 | 70 | 1012.7 |
| 20260505232822 | 52 | 51 | 14.0 | 16.0 | 0.00 | 0.00 | 0.00 | 70 | 1012.7 |
| 20260505232652 | 52 | 49 | 14.0 | 20.0 | 0.00 | 0.00 | 0.00 | 70 | 1012.7 |
| 20260505232522 | 52 | 46 | 14.0 | 16.0 | 0.00 | 0.00 | 0.00 | 70 | 1012.7 |
| 20260505232422 | 52 | 42 | 13.0 | 16.0 | 0.00 | 0.00 | 0.00 | 70 | 1012.7 |
| 20260505232322 | 52 | 41 | 14.0 | 17.0 | 0.00 | 0.00 | 0.00 | 70 | 1012.7 |
| 20260505232222 | 52 | 43 | 15.0 | 20.0 | 0.00 | 0.00 | 0.00 | 70 | 1012.7 |
| 20260505232052 | 52 | 46 | 14.0 | 17.0 | 0.00 | 0.00 | 0.00 | 70 | 1012.7 |
| 20260505231922 | 52 | 36 | 14.0 | 17.0 | 0.00 | 0.00 | 0.00 | 70 | 1012.8 |
| 20260505231822 | 52 | 46 | 14.0 | 17.0 | 0.00 | 0.00 | 0.00 | 70 | 1012.7 |
| 20260505231722 | 52 | 44 | 14.0 | 17.0 | 0.00 | 0.00 | 0.00 | 70 | 1012.7 |
| 20260505231622 | 52 | 46 | 14.0 | 17.0 | 0.00 | 0.00 | 0.00 | 70 | 1012.7 |
| 20260505231452 | 52 | 48 | 16.0 | 18.0 | 0.00 | 0.00 | 0.00 | 70 | 1012.8 |
| 20260505231322 | 52 | 50 | 14.0 | 20.0 | 0.00 | 0.00 | 0.00 | 70 | 1012.8 |
| 20260505231152 | 52 | 44 | 12.0 | 15.0 | 0.00 | 0.00 | 0.00 | 70 | 1012.7 |
| 20260505231022 | 52 | 50 | 13.0 | 16.0 | 0.00 | 0.00 | 0.00 | 70 | 1012.7 |
| 20260505230922 | 52 | 50 | 14.0 | 16.0 | 0.00 | 0.00 | 0.00 | 70 | 1012.7 |
| 20260505230822 | 52 | 43 | 12.0 | 16.0 | 0.00 | 0.00 | 0.00 | 70 | 1012.7 |
| 20260505230722 | 52 | 43 | 13.0 | 14.0 | 0.00 | 0.00 | 0.00 | 70 | 1012.7 |
| 20260505230622 | 52 | 49 | 14.0 | 16.0 | 0.00 | 0.00 | 0.00 | 70 | 1012.7 |
| 20260505230522 | 52 | 42 | 14.0 | 18.0 | 0.00 | 0.00 | 0.00 | 70 | 1012.8 |
| 20260505230352 | 52 | 49 | 14.0 | 17.0 | 0.00 | 0.00 | 0.00 | 70 | 1012.8 |
| 20260505230222 | 52 | 40 | 15.0 | 17.0 | 0.00 | 0.00 | 0.00 | 70 | 1012.8 |
| 20260505230052 | 52 | 51 | 12.0 | 17.0 | 0.00 | 0.00 | 0.00 | 70 | 1012.8 |
| 20260505225952 | 52 | 48 | 12.0 | 14.0 | 0.00 | 0.00 | 0.00 | 70 | 1012.8 |
| 20260505225822 | 52 | 43 | 12.0 | 12.0 | 0.00 | 0.00 | 0.00 | 70 | 1012.8 |
| 20260505225722 | 52 | 52 | 13.0 | 16.0 | 0.00 | 0.00 | 0.00 | 69 | 1012.9 |
| 20260505225622 | 52 | 51 | 15.0 | 16.0 | 0.00 | 0.00 | 0.00 | 69 | 1012.9 |
| 20260505225452 | 52 | 39 | 14.0 | 18.0 | 0.00 | 0.00 | 0.00 | 70 | 1012.9 |
| 20260505225322 | 52 | 41 | 14.0 | 17.0 | 0.00 | 0.00 | 0.00 | 69 | 1012.9 |
| 20260505225222 | 52 | 45 | 13.0 | 18.0 | 0.00 | 0.00 | 0.00 | 70 | 1012.9 |
| 20260505225052 | 52 | 50 | 15.0 | 21.0 | 0.00 | 0.00 | 0.00 | 69 | 1012.9 |
| 20260505224922 | 52 | 44 | 13.0 | 20.0 | 0.00 | 0.00 | 0.00 | 70 | 1012.9 |
| 20260505224822 | 52 | 48 | 14.0 | 18.0 | 0.00 | 0.00 | 0.00 | 70 | 1012.9 |
| 20260505224722 | 52 | 47 | 13.0 | 18.0 | 0.00 | 0.00 | 0.00 | 70 | 1012.9 |
| 20260505224622 | 52 | 40 | 13.0 | 15.0 | 0.00 | 0.00 | 0.00 | 70 | 1012.9 |
| 20260505224522 | 52 | 50 | 15.0 | 18.0 | 0.00 | 0.00 | 0.00 | 69 | 1012.9 |
| 20260505224422 | 52 | 53 | 14.0 | 20.0 | 0.00 | 0.00 | 0.00 | 69 | 1012.9 |
| 20260505224252 | 52 | 47 | 15.0 | 17.0 | 0.00 | 0.00 | 0.00 | 69 | 1012.9 |
| 20260505224152 | 52 | 46 | 14.0 | 16.0 | 0.00 | 0.00 | 0.00 | 69 | 1012.9 |
| 20260505224022 | 53 | 43 | 13.0 | 17.0 | 0.00 | 0.00 | 0.00 | 70 | 1012.9 |
| 20260505223852 | 52 | 36 | 14.0 | 18.0 | 0.00 | 0.00 | 0.00 | 69 | 1012.9 |
| 20260505223750 | 52 | 36 | 14.0 | 20.0 | 0.00 | 0.00 | 0.00 | 69 | 1012.9 |
| 20260505223620 | 52 | 46 | 13.0 | 14.0 | 0.00 | 0.00 | 0.00 | 69 | 1012.9 |
| 20260505223520 | 53 | 50 | 15.0 | 16.0 | 0.00 | 0.00 | 0.00 | 69 | 1012.9 |
| 20260505223420 | 53 | 46 | 14.0 | 18.0 | 0.00 | 0.00 | 0.00 | 69 | 1012.9 |
| 20260505223320 | 53 | 36 | 15.0 | 20.0 | 0.00 | 0.00 | 0.00 | 69 | 1012.9 |
| 20260505223150 | 53 | 43 | 14.0 | 17.0 | 0.00 | 0.00 | 0.00 | 69 | 1012.9 |
| 20260505223050 | 53 | 50 | 15.0 | 18.0 | 0.00 | 0.00 | 0.00 | 69 | 1012.9 |
| 20260505222950 | 53 | 43 | 14.0 | 20.0 | 0.00 | 0.00 | 0.00 | 69 | 1012.9 |
| 20260505222820 | 53 | 47 | 13.0 | 15.0 | 0.00 | 0.00 | 0.00 | 69 | 1012.9 |
| 20260505222720 | 53 | 39 | 13.0 | 16.0 | 0.00 | 0.00 | 0.00 | 69 | 1012.9 |
| 20260505222620 | 53 | 50 | 13.0 | 16.0 | 0.00 | 0.00 | 0.00 | 69 | 1012.9 |
| 20260505222520 | 53 | 49 | 14.0 | 18.0 | 0.00 | 0.00 | 0.00 | 69 | 1012.9 |
| 20260505222350 | 53 | 51 | 15.0 | 18.0 | 0.00 | 0.00 | 0.00 | 69 | 1012.9 |
| 20260505222250 | 53 | 47 | 14.0 | 17.0 | 0.00 | 0.00 | 0.00 | 69 | 1012.9 |
| 20260505222120 | 53 | 51 | 14.0 | 15.0 | 0.00 | 0.00 | 0.00 | 69 | 1012.9 |
| 20260505221950 | 53 | 46 | 12.0 | 15.0 | 0.00 | 0.00 | 0.00 | 69 | 1012.9 |
| 20260505221850 | 53 | 46 | 12.0 | 13.0 | 0.00 | 0.00 | 0.00 | 69 | 1012.9 |
| 20260505221720 | 53 | 40 | 12.0 | 15.0 | 0.00 | 0.00 | 0.00 | 69 | 1012.9 |
| 20260505221550 | 53 | 49 | 14.0 | 16.0 | 0.00 | 0.00 | 0.00 | 69 | 1012.9 |
| 20260505221420 | 53 | 51 | 14.0 | 17.0 | 0.00 | 0.00 | 0.00 | 69 | 1012.9 |
| 20260505221250 | 53 | 49 | 14.0 | 18.0 | 0.00 | 0.00 | 0.00 | 69 | 1012.9 |
| 20260505221150 | 53 | 51 | 12.0 | 18.0 | 0.00 | 0.00 | 0.00 | 69 | 1012.9 |
| 20260505221050 | 53 | 50 | 13.0 | 16.0 | 0.00 | 0.00 | 0.00 | 69 | 1012.9 |
| 20260505220920 | 53 | 47 | 13.0 | 17.0 | 0.00 | 0.00 | 0.00 | 69 | 1012.9 |
| 20260505220820 | 53 | 44 | 13.0 | 16.0 | 0.00 | 0.00 | 0.00 | 68 | 1012.9 |
| 20260505220650 | 53 | 40 | 12.0 | 14.0 | 0.00 | 0.00 | 0.00 | 69 | 1012.9 |
| 20260505220520 | 53 | 50 | 12.0 | 15.0 | 0.00 | 0.00 | 0.00 | 69 | 1012.9 |
| 20260505220350 | 53 | 49 | 10.0 | 13.0 | 0.00 | 0.00 | 0.00 | 69 | 1012.9 |
| 20260505220250 | 53 | 45 | 12.0 | 12.0 | 0.00 | 0.00 | 0.00 | 68 | 1013.0 |
| 20260505220150 | 53 | 36 | 13.0 | 14.0 | 0.00 | 0.00 | 0.00 | 68 | 1012.9 |
| 20260505220050 | 53 | 42 | 13.0 | 18.0 | 0.00 | 0.00 | 0.00 | 68 | 1013.0 |
| 20260505215920 | 53 | 49 | 14.0 | 17.0 | 0.00 | 0.00 | 0.00 | 68 | 1012.9 |
| 20260505215750 | 53 | 48 | 12.0 | 14.0 | 0.00 | 0.00 | 0.00 | 68 | 1012.9 |
| 20260505215620 | 53 | 46 | 12.0 | 14.0 | 0.00 | 0.00 | 0.00 | 68 | 1012.9 |
| 20260505215450 | 53 | 54 | 10.0 | 14.0 | 0.00 | 0.00 | 0.00 | 68 | 1013.0 |
| 20260505215350 | 53 | 42 | 10.0 | 13.0 | 0.00 | 0.00 | 0.00 | 68 | 1013.0 |
| 20260505215250 | 53 | 41 | 10.0 | 12.0 | 0.00 | 0.00 | 0.00 | 68 | 1012.9 |
| 20260505215120 | 53 | 45 | 14.0 | 14.0 | 0.00 | 0.00 | 0.00 | 68 | 1012.9 |
| 20260505215020 | 53 | 36 | 13.0 | 17.0 | 0.00 | 0.00 | 0.00 | 68 | 1012.9 |
| 20260505214920 | 53 | 47 | 12.0 | 14.0 | 0.00 | 0.00 | 0.00 | 68 | 1012.9 |
| 20260505214750 | 53 | 41 | 13.0 | 14.0 | 0.00 | 0.00 | 0.00 | 68 | 1012.9 |
| 20260505214620 | 53 | 44 | 14.0 | 17.0 | 0.00 | 0.00 | 0.00 | 68 | 1012.9 |
| 20260505214520 | 53 | 40 | 14.0 | 17.0 | 0.00 | 0.00 | 0.00 | 68 | 1012.9 |
| 20260505214420 | 53 | 46 | 13.0 | 20.0 | 0.00 | 0.00 | 0.00 | 68 | 1013.0 |
| 20260505214320 | 53 | 42 | 13.0 | 13.0 | 0.00 | 0.00 | 0.00 | 67 | 1012.9 |
| 20260505214220 | 53 | 45 | 13.0 | 17.0 | 0.00 | 0.00 | 0.00 | 68 | 1012.9 |
| 20260505214120 | 53 | 49 | 13.0 | 16.0 | 0.00 | 0.00 | 0.00 | 68 | 1012.9 |
| 20260505213950 | 53 | 47 | 13.0 | 17.0 | 0.00 | 0.00 | 0.00 | 68 | 1013.0 |
| 20260505213850 | 53 | 47 | 12.0 | 16.0 | 0.00 | 0.00 | 0.00 | 68 | 1012.9 |
| 20260505213720 | 53 | 41 | 13.0 | 16.0 | 0.00 | 0.00 | 0.00 | 68 | 1012.9 |
| 20260505213620 | 53 | 49 | 13.0 | 16.0 | 0.00 | 0.00 | 0.00 | 68 | 1013.0 |
| 20260505213450 | 53 | 49 | 13.0 | 17.0 | 0.00 | 0.00 | 0.00 | 68 | 1012.9 |
| 20260505213350 | 53 | 44 | 12.0 | 16.0 | 0.00 | 0.00 | 0.00 | 68 | 1013.0 |
| 20260505213250 | 53 | 41 | 13.0 | 15.0 | 0.00 | 0.00 | 0.00 | 67 | 1013.0 |
| 20260505213120 | 53 | 53 | 13.0 | 16.0 | 0.00 | 0.00 | 0.00 | 67 | 1013.0 |
| 20260505213020 | 53 | 52 | 13.0 | 16.0 | 0.00 | 0.00 | 0.00 | 68 | 1012.9 |
| 20260505212850 | 53 | 48 | 12.0 | 14.0 | 0.00 | 0.00 | 0.00 | 68 | 1013.0 |
| 20260505212750 | 53 | 41 | 13.0 | 16.0 | 0.00 | 0.00 | 0.00 | 68 | 1013.0 |
| 20260505212650 | 53 | 43 | 13.0 | 14.0 | 0.00 | 0.00 | 0.00 | 68 | 1013.0 |
| 20260505212550 | 53 | 47 | 13.0 | 15.0 | 0.00 | 0.00 | 0.00 | 68 | 1013.0 |
| 20260505212420 | 53 | 47 | 12.0 | 15.0 | 0.00 | 0.00 | 0.00 | 68 | 1013.0 |
| 20260505212320 | 53 | 49 | 10.0 | 15.0 | 0.00 | 0.00 | 0.00 | 68 | 1013.0 |
| 20260505212220 | 54 | 50 | 9.0 | 13.0 | 0.00 | 0.00 | 0.00 | 68 | 1013.0 |
| 20260505212120 | 54 | 54 | 10.0 | 15.0 | 0.00 | 0.00 | 0.00 | 68 | 1013.1 |
| 20260505211950 | 54 | 48 | 10.0 | 14.0 | 0.00 | 0.00 | 0.00 | 68 | 1013.0 |
| 20260505211850 | 54 | 48 | 10.0 | 14.0 | 0.00 | 0.00 | 0.00 | 68 | 1013.0 |
| 20260505211720 | 54 | 32 | 9.0 | 12.0 | 0.00 | 0.00 | 0.00 | 68 | 1013.0 |
| 20260505211620 | 54 | 40 | 9.0 | 12.0 | 0.00 | 0.00 | 0.00 | 68 | 1013.0 |
| 20260505211520 | 54 | 46 | 12.0 | 16.0 | 0.00 | 0.00 | 0.00 | 67 | 1013.0 |
| 20260505211350 | 54 | 52 | 12.0 | 13.0 | 0.00 | 0.00 | 0.00 | 67 | 1013.0 |
| 20260505211220 | 54 | 45 | 13.0 | 17.0 | 0.00 | 0.00 | 0.00 | 67 | 1013.0 |
| 20260505211120 | 54 | 44 | 13.0 | 13.0 | 0.00 | 0.00 | 0.00 | 67 | 1013.0 |
| 20260505211020 | 54 | 44 | 13.0 | 16.0 | 0.00 | 0.00 | 0.00 | 67 | 1013.0 |
| 20260505210920 | 54 | 36 | 14.0 | 16.0 | 0.00 | 0.00 | 0.00 | 67 | 1012.9 |
| 20260505210820 | 54 | 35 | 15.0 | 20.0 | 0.00 | 0.00 | 0.00 | 67 | 1012.9 |
| 20260505210650 | 54 | 47 | 13.0 | 16.0 | 0.00 | 0.00 | 0.00 | 67 | 1013.0 |
| 20260505210550 | 54 | 38 | 13.0 | 15.0 | 0.00 | 0.00 | 0.00 | 67 | 1013.0 |
| 20260505210420 | 54 | 50 | 10.0 | 16.0 | 0.00 | 0.00 | 0.00 | 68 | 1013.0 |
| 20260505210320 | 54 | 47 | 10.0 | 14.0 | 0.00 | 0.00 | 0.00 | 68 | 1013.0 |
| 20260505210150 | 54 | 39 | 13.0 | 16.0 | 0.00 | 0.00 | 0.00 | 67 | 1013.0 |
| 20260505210050 | 54 | 47 | 12.0 | 15.0 | 0.00 | 0.00 | 0.00 | 67 | 1012.9 |
| 20260505205950 | 54 | 48 | 13.0 | 16.0 | 0.00 | 0.00 | 0.00 | 67 | 1012.9 |
| 20260505205850 | 54 | 53 | 13.0 | 16.0 | 0.00 | 0.00 | 0.00 | 67 | 1012.9 |
| 20260505205750 | 54 | 48 | 13.0 | 15.0 | 0.00 | 0.00 | 0.00 | 67 | 1012.9 |
| 20260505205650 | 54 | 47 | 14.0 | 20.0 | 0.00 | 0.00 | 0.00 | 67 | 1012.9 |
| 20260505205520 | 54 | 49 | 12.0 | 17.0 | 0.00 | 0.00 | 0.00 | 67 | 1013.0 |
| 20260505205420 | 54 | 60 | 14.0 | 15.0 | 0.00 | 0.00 | 0.00 | 67 | 1012.9 |
| 20260505205250 | 54 | 48 | 13.0 | 20.0 | 0.00 | 0.00 | 0.00 | 67 | 1012.9 |
| 20260505205150 | 54 | 46 | 14.0 | 16.0 | 0.00 | 0.00 | 0.00 | 67 | 1012.9 |
| 20260505205050 | 54 | 47 | 12.0 | 16.0 | 0.00 | 0.00 | 0.00 | 67 | 1012.9 |
| 20260505204950 | 54 | 46 | 13.0 | 15.0 | 0.00 | 0.00 | 0.00 | 67 | 1012.9 |
| 20260505204820 | 54 | 42 | 12.0 | 15.0 | 0.00 | 0.00 | 0.00 | 67 | 1012.9 |
| 20260505204650 | 54 | 46 | 10.0 | 13.0 | 0.00 | 0.00 | 0.00 | 67 | 1012.9 |
| 20260505204550 | 54 | 46 | 10.0 | 13.0 | 0.00 | 0.00 | 0.00 | 67 | 1012.9 |
| 20260505204420 | 54 | 46 | 10.0 | 12.0 | 0.00 | 0.00 | 0.00 | 67 | 1012.9 |
| 20260505204320 | 54 | 42 | 10.0 | 15.0 | 0.00 | 0.00 | 0.00 | 67 | 1012.9 |
| 20260505204220 | 54 | 35 | 12.0 | 13.0 | 0.00 | 0.00 | 0.00 | 67 | 1012.9 |
| 20260505204120 | 54 | 46 | 13.0 | 13.0 | 0.00 | 0.00 | 0.00 | 67 | 1012.9 |
| 20260505204019 | 54 | 44 | 12.0 | 18.0 | 0.00 | 0.00 | 0.00 | 67 | 1012.9 |
| 20260505203850 | 55 | 23 | 9.0 | 12.0 | 0.00 | 0.00 | 0.00 | 67 | 1012.9 |
| 20260505203749 | 55 | 33 | 12.0 | 13.0 | 0.00 | 0.00 | 0.00 | 67 | 1012.9 |
| 20260505203620 | 55 | 21 | 12.0 | 14.0 | 0.00 | 0.00 | 0.00 | 66 | 1012.9 |
| 20260505203519 | 55 | 27 | 13.0 | 15.0 | 0.00 | 0.00 | 0.00 | 66 | 1012.9 |
| 20260505203349 | 55 | 33 | 12.0 | 15.0 | 0.00 | 0.00 | 0.00 | 66 | 1012.9 |
| 20260505203249 | 55 | 32 | 12.0 | 14.0 | 0.00 | 0.00 | 0.00 | 66 | 1012.9 |
| 20260505203149 | 55 | 21 | 13.0 | 16.0 | 0.00 | 0.00 | 0.00 | 66 | 1012.8 |
| 20260505203019 | 55 | 35 | 12.0 | 14.0 | 0.00 | 0.00 | 0.00 | 66 | 1012.8 |
| 20260505202919 | 55 | 28 | 12.0 | 15.0 | 0.00 | 0.00 | 0.00 | 66 | 1012.8 |
| 20260505202749 | 55 | 40 | 12.0 | 16.0 | 0.00 | 0.00 | 0.00 | 66 | 1012.8 |
| 20260505202619 | 55 | 32 | 13.0 | 16.0 | 0.00 | 0.00 | 0.00 | 65 | 1012.8 |
| 20260505202519 | 55 | 39 | 12.0 | 15.0 | 0.00 | 0.00 | 0.00 | 65 | 1012.8 |
| 20260505202350 | 55 | 50 | 12.0 | 12.0 | 0.00 | 0.00 | 0.00 | 65 | 1012.8 |
| 20260505202219 | 55 | 52 | 10.0 | 13.0 | 0.00 | 0.00 | 0.00 | 65 | 1012.8 |
| 20260505202119 | 55 | 52 | 10.0 | 12.0 | 0.00 | 0.00 | 0.00 | 65 | 1012.8 |
| 20260505202019 | 55 | 56 | 10.0 | 15.0 | 0.00 | 0.00 | 0.00 | 65 | 1012.8 |
| 20260505201849 | 55 | 33 | 13.0 | 15.0 | 0.00 | 0.00 | 0.00 | 65 | 1012.8 |
| 20260505201749 | 55 | 38 | 14.0 | 16.0 | 0.00 | 0.00 | 0.00 | 65 | 1012.7 |
| 20260505201649 | 55 | 38 | 13.0 | 18.0 | 0.00 | 0.00 | 0.00 | 65 | 1012.8 |
| 20260505201549 | 55 | 30 | 12.0 | 17.0 | 0.00 | 0.00 | 0.00 | 65 | 1012.8 |
| 20260505201419 | 55 | 34 | 12.0 | 13.0 | 0.00 | 0.00 | 0.00 | 64 | 1012.8 |
| 20260505201319 | 55 | 35 | 13.0 | 15.0 | 0.00 | 0.00 | 0.00 | 64 | 1012.8 |
| 20260505201149 | 55 | 32 | 10.0 | 13.0 | 0.00 | 0.00 | 0.00 | 64 | 1012.8 |
| 20260505201049 | 55 | 26 | 9.0 | 13.0 | 0.00 | 0.00 | 0.00 | 64 | 1012.8 |
| 20260505200919 | 55 | 24 | 13.0 | 14.0 | 0.00 | 0.00 | 0.00 | 64 | 1012.8 |
| 20260505200749 | 55 | 29 | 14.0 | 18.0 | 0.00 | 0.00 | 0.00 | 64 | 1012.8 |
| 20260505200620 | 56 | 32 | 9.0 | 17.0 | 0.00 | 0.00 | 0.00 | 64 | 1012.8 |
| 20260505200519 | 56 | 46 | 12.0 | 15.0 | 0.00 | 0.00 | 0.00 | 63 | 1012.8 |
| 20260505200349 | 56 | 40 | 12.0 | 14.0 | 0.00 | 0.00 | 0.00 | 63 | 1012.7 |
| 20260505200249 | 56 | 41 | 13.0 | 16.0 | 0.00 | 0.00 | 0.00 | 63 | 1012.7 |
| 20260505200149 | 56 | 34 | 12.0 | 15.0 | 0.00 | 0.00 | 0.00 | 63 | 1012.7 |
| 20260505200049 | 56 | 19 | 14.0 | 15.0 | 0.00 | 0.00 | 0.00 | 63 | 1012.6 |
| 20260505195919 | 56 | 26 | 15.0 | 18.0 | 0.00 | 0.00 | 0.00 | 62 | 1012.6 |
| 20260505195749 | 56 | 34 | 10.0 | 12.0 | 0.00 | 0.00 | 0.00 | 63 | 1012.6 |
| 20260505195649 | 56 | 24 | 10.0 | 14.0 | 0.00 | 0.00 | 0.00 | 62 | 1012.6 |
| 20260505195519 | 56 | 28 | 10.0 | 13.0 | 0.00 | 0.00 | 0.00 | 62 | 1012.6 |
| 20260505195349 | 56 | 19 | 10.0 | 14.0 | 0.00 | 0.00 | 0.00 | 63 | 1012.5 |
| 20260505195249 | 56 | 39 | 9.0 | 13.0 | 0.00 | 0.00 | 0.00 | 62 | 1012.5 |
| 20260505195149 | 56 | 55 | 8.0 | 12.0 | 0.00 | 0.00 | 0.00 | 62 | 1012.5 |
| 20260505195019 | 56 | 46 | 8.0 | 10.0 | 0.00 | 0.00 | 0.00 | 62 | 1012.5 |
| 20260505194919 | 56 | 46 | 8.0 | 12.0 | 0.00 | 0.00 | 0.00 | 62 | 1012.4 |
| 20260505194749 | 56 | 28 | 12.0 | 12.0 | 0.00 | 0.00 | 0.00 | 61 | 1012.5 |
| 20260505194619 | 56 | 37 | 12.0 | 14.0 | 0.00 | 0.00 | 0.00 | 61 | 1012.4 |
| 20260505194449 | 56 | 45 | 10.0 | 14.0 | 0.00 | 0.00 | 0.00 | 62 | 1012.5 |
| 20260505194349 | 56 | 42 | 9.0 | 13.0 | 0.00 | 0.00 | 0.00 | 61 | 1012.4 |
| 20260505194249 | 56 | 44 | 8.0 | 12.0 | 0.00 | 0.00 | 0.00 | 62 | 1012.4 |
| 20260505194119 | 56 | 25 | 10.0 | 12.0 | 0.00 | 0.00 | 0.00 | 61 | 1012.4 |
| 20260505194019 | 56 | 31 | 10.0 | 14.0 | 0.00 | 0.00 | 0.00 | 61 | 1012.4 |
| 20260505193919 | 56 | 33 | 12.0 | 12.0 | 0.00 | 0.00 | 0.00 | 61 | 1012.4 |
| 20260505193819 | 56 | 34 | 12.0 | 17.0 | 0.00 | 0.00 | 0.00 | 61 | 1012.4 |
| 20260505193649 | 57 | 34 | 10.0 | 15.0 | 0.00 | 0.00 | 0.00 | 61 | 1012.4 |
| 20260505193549 | 57 | 34 | 13.0 | 15.0 | 0.00 | 0.00 | 0.00 | 60 | 1012.3 |
| 20260505193449 | 57 | 29 | 15.0 | 18.0 | 0.00 | 0.00 | 0.00 | 60 | 1012.4 |
| 20260505193349 | 57 | 22 | 10.0 | 15.0 | 0.00 | 0.00 | 0.00 | 61 | 1012.4 |
| 20260505193249 | 57 | 30 | 12.0 | 14.0 | 0.00 | 0.00 | 0.00 | 60 | 1012.3 |
| 20260505193119 | 57 | 25 | 10.0 | 16.0 | 0.00 | 0.00 | 0.00 | 61 | 1012.4 |
| 20260505193019 | 57 | 35 | 9.0 | 12.0 | 0.00 | 0.00 | 0.00 | 60 | 1012.4 |
| 20260505192919 | 57 | 38 | 10.0 | 12.0 | 0.00 | 0.00 | 0.00 | 60 | 1012.3 |
| 20260505192819 | 57 | 29 | 8.0 | 15.0 | 0.00 | 0.00 | 0.00 | 60 | 1012.3 |
| 20260505192719 | 57 | 22 | 10.0 | 13.0 | 0.00 | 0.00 | 0.00 | 60 | 1012.3 |
| 20260505192549 | 57 | 41 | 12.0 | 13.0 | 0.00 | 0.00 | 0.00 | 60 | 1012.3 |
| 20260505192449 | 57 | 38 | 13.0 | 15.0 | 0.00 | 0.00 | 0.00 | 60 | 1012.3 |
| 20260505192349 | 57 | 29 | 13.0 | 17.0 | 0.00 | 0.00 | 0.00 | 60 | 1012.3 |
| 20260505192249 | 57 | 19 | 12.0 | 13.0 | 0.00 | 0.00 | 0.00 | 59 | 1012.3 |
| 20260505192119 | 57 | 27 | 12.0 | 15.0 | 0.00 | 0.00 | 0.00 | 60 | 1012.4 |
| 20260505192019 | 57 | 35 | 12.0 | 14.0 | 0.00 | 0.00 | 0.00 | 59 | 1012.3 |
| 20260505191919 | 57 | 25 | 8.0 | 14.0 | 0.00 | 0.00 | 0.00 | 60 | 1012.4 |
| 20260505191819 | 57 | 44 | 8.0 | 12.0 | 0.00 | 0.00 | 0.00 | 59 | 1012.3 |
| 20260505191649 | 57 | 27 | 13.0 | 17.0 | 0.00 | 0.00 | 0.00 | 59 | 1012.3 |
| 20260505191549 | 57 | 29 | 9.0 | 14.0 | 0.00 | 0.00 | 0.00 | 59 | 1012.3 |
| 20260505191449 | 57 | 36 | 9.0 | 12.0 | 0.00 | 0.00 | 0.00 | 59 | 1012.3 |
| 20260505191319 | 57 | 27 | 10.0 | 12.0 | 0.00 | 0.00 | 0.00 | 59 | 1012.3 |
| 20260505191149 | 57 | 30 | 12.0 | 13.0 | 0.00 | 0.00 | 0.00 | 59 | 1012.3 |
| 20260505191049 | 57 | 30 | 12.0 | 15.0 | 0.00 | 0.00 | 0.00 | 59 | 1012.3 |
| 20260505190919 | 57 | 28 | 10.0 | 15.0 | 0.00 | 0.00 | 0.00 | 59 | 1012.3 |
| 20260505190819 | 57 | 38 | 9.0 | 14.0 | 0.00 | 0.00 | 0.00 | 59 | 1012.3 |
| 20260505190649 | 57 | 23 | 13.0 | 17.0 | 0.00 | 0.00 | 0.00 | 59 | 1012.2 |
| 20260505190549 | 57 | 19 | 10.0 | 15.0 | 0.00 | 0.00 | 0.00 | 59 | 1012.3 |
| 20260505190449 | 57 | 30 | 9.0 | 13.0 | 0.00 | 0.00 | 0.00 | 59 | 1012.3 |
| 20260505190349 | 57 | 31 | 9.0 | 12.0 | 0.00 | 0.00 | 0.00 | 59 | 1012.3 |
| 20260505190219 | 57 | 16 | 8.0 | 12.0 | 0.00 | 0.00 | 0.00 | 59 | 1012.3 |
| 20260505190119 | 57 | 21 | 8.0 | 10.0 | 0.00 | 0.00 | 0.00 | 59 | 1012.2 |
| 20260505190019 | 57 | 28 | 8.0 | 12.0 | 0.00 | 0.00 | 0.00 | 59 | 1012.3 |
| 20260505185919 | 57 | 29 | 9.0 | 10.0 | 0.00 | 0.00 | 0.00 | 59 | 1012.2 |
| 20260505185749 | 57 | 37 | 10.0 | 14.0 | 0.00 | 0.00 | 0.00 | 59 | 1012.3 |
| 20260505185649 | 57 | 25 | 9.0 | 14.0 | 0.00 | 0.00 | 0.00 | 59 | 1012.2 |
| 20260505185549 | 57 | 24 | 10.0 | 12.0 | 0.00 | 0.00 | 0.00 | 59 | 1012.2 |
| 20260505185419 | 57 | 29 | 10.0 | 13.0 | 0.00 | 0.00 | 0.00 | 59 | 1012.2 |
| 20260505185319 | 57 | 28 | 9.0 | 12.0 | 0.00 | 0.00 | 0.00 | 59 | 1012.2 |
| 20260505185149 | 57 | 23 | 8.0 | 12.0 | 0.00 | 0.00 | 0.00 | 59 | 1012.2 |
| 20260505185019 | 57 | 18 | 8.0 | 10.0 | 0.00 | 0.00 | 0.00 | 59 | 1012.2 |
| 20260505184919 | 57 | 27 | 9.0 | 10.0 | 0.00 | 0.00 | 0.00 | 58 | 1012.2 |
| 20260505184819 | 57 | 36 | 8.0 | 13.0 | 0.00 | 0.00 | 0.00 | 59 | 1012.2 |
| 20260505184719 | 58 | 32 | 7.0 | 12.0 | 0.00 | 0.00 | 0.00 | 59 | 1012.2 |
| 20260505184549 | 58 | 30 | 10.0 | 14.0 | 0.00 | 0.00 | 0.00 | 58 | 1012.2 |
| 20260505184449 | 58 | 34 | 10.0 | 13.0 | 0.00 | 0.00 | 0.00 | 58 | 1012.2 |
| 20260505184319 | 58 | 30 | 13.0 | 14.0 | 0.00 | 0.00 | 0.00 | 57 | 1012.2 |
| 20260505184219 | 58 | 18 | 14.0 | 17.0 | 0.00 | 0.00 | 0.00 | 57 | 1012.2 |
| 20260505184049 | 58 | 12 | 13.0 | 15.0 | 0.00 | 0.00 | 0.00 | 57 | 1012.2 |
| 20260505183949 | 58 | 26 | 10.0 | 14.0 | 0.00 | 0.00 | 0.00 | 57 | 1012.2 |
| 20260505183849 | 58 | 25 | 9.0 | 12.0 | 0.00 | 0.00 | 0.00 | 57 | 1012.2 |
| 20260505183719 | 58 | 31 | 12.0 | 14.0 | 0.00 | 0.00 | 0.00 | 57 | 1012.2 |
| 20260505183549 | 58 | 16 | 13.0 | 17.0 | 0.00 | 0.00 | 0.00 | 57 | 1012.1 |
| 20260505183449 | 58 | 26 | 13.0 | 15.0 | 0.00 | 0.00 | 0.00 | 57 | 1012.2 |
| 20260505183319 | 58 | 28 | 13.0 | 15.0 | 0.00 | 0.00 | 0.00 | 57 | 1012.1 |
| 20260505183219 | 58 | 24 | 13.0 | 16.0 | 0.00 | 0.00 | 0.00 | 58 | 1012.2 |
| 20260505183119 | 58 | 21 | 9.0 | 16.0 | 0.00 | 0.00 | 0.00 | 59 | 1012.1 |
| 20260505183019 | 58 | 8 | 10.0 | 12.0 | 0.00 | 0.00 | 0.00 | 58 | 1012.1 |
| 20260505182849 | 58 | 33 | 9.0 | 12.0 | 0.00 | 0.00 | 0.00 | 58 | 1012.1 |
| 20260505182749 | 58 | 40 | 8.0 | 12.0 | 0.00 | 0.00 | 0.00 | 58 | 1012.1 |
| 20260505182649 | 58 | 36 | 7.0 | 10.0 | 0.00 | 0.00 | 0.00 | 58 | 1012.1 |
| 20260505182519 | 58 | 27 | 10.0 | 13.0 | 0.00 | 0.00 | 0.00 | 57 | 1012.1 |
| 20260505182419 | 58 | 30 | 12.0 | 13.0 | 0.00 | 0.00 | 0.00 | 57 | 1012.1 |
| 20260505182319 | 58 | 37 | 8.0 | 13.0 | 0.00 | 0.00 | 0.00 | 58 | 1012.1 |
| 20260505182219 | 58 | 20 | 8.0 | 10.0 | 0.00 | 0.00 | 0.00 | 58 | 1012.0 |
| 20260505182119 | 58 | 24 | 9.0 | 12.0 | 0.00 | 0.00 | 0.00 | 57 | 1012.0 |
| 20260505182019 | 58 | 40 | 10.0 | 12.0 | 0.00 | 0.00 | 0.00 | 58 | 1012.0 |
| 20260505181919 | 58 | 17 | 12.0 | 15.0 | 0.00 | 0.00 | 0.00 | 58 | 1012.0 |
| 20260505181819 | 58 | 22 | 8.0 | 15.0 | 0.00 | 0.00 | 0.00 | 58 | 1012.1 |
| 20260505181719 | 58 | 33 | 9.0 | 12.0 | 0.00 | 0.00 | 0.00 | 57 | 1012.1 |
| 20260505181619 | 58 | 30 | 10.0 | 14.0 | 0.00 | 0.00 | 0.00 | 57 | 1012.1 |
| 20260505181449 | 58 | 59 | 7.0 | 12.0 | 0.00 | 0.00 | 0.00 | 58 | 1012.0 |
| 20260505181349 | 58 | 48 | 7.0 | 9.0 | 0.00 | 0.00 | 0.00 | 58 | 1012.1 |
| 20260505181219 | 58 | 21 | 9.0 | 12.0 | 0.00 | 0.00 | 0.00 | 57 | 1012.1 |
| 20260505181119 | 58 | 35 | 10.0 | 12.0 | 0.00 | 0.00 | 0.00 | 58 | 1012.1 |
| 20260505181019 | 58 | 43 | 10.0 | 12.0 | 0.00 | 0.00 | 0.00 | 57 | 1012.1 |
| 20260505180849 | 58 | 29 | 8.0 | 12.0 | 0.00 | 0.00 | 0.00 | 58 | 1012.1 |
| 20260505180749 | 58 | 21 | 8.0 | 9.0 | 0.00 | 0.00 | 0.00 | 58 | 1012.1 |
| 20260505180649 | 58 | 23 | 8.0 | 13.0 | 0.00 | 0.00 | 0.00 | 58 | 1012.0 |
| 20260505180519 | 58 | 27 | 9.0 | 12.0 | 0.00 | 0.00 | 0.00 | 57 | 1012.1 |
| 20260505180419 | 58 | 35 | 9.0 | 12.0 | 0.00 | 0.00 | 0.00 | 58 | 1012.1 |
| 20260505180249 | 58 | 15 | 9.0 | 12.0 | 0.00 | 0.00 | 0.00 | 58 | 1012.0 |
| 20260505180149 | 58 | 32 | 7.0 | 12.0 | 0.00 | 0.00 | 0.00 | 58 | 1012.0 |
| 20260505180049 | 58 | 50 | 7.0 | 9.0 | 0.00 | 0.00 | 0.00 | 58 | 1012.0 |
| 20260505175919 | 58 | 44 | 8.0 | 10.0 | 0.00 | 0.00 | 0.00 | 58 | 1012.0 |
| 20260505175749 | 58 | 16 | 9.0 | 12.0 | 0.00 | 0.00 | 0.00 | 58 | 1012.0 |
| 20260505175649 | 58 | 18 | 12.0 | 13.0 | 0.00 | 0.00 | 0.00 | 57 | 1012.0 |
| 20260505175519 | 58 | 28 | 12.0 | 14.0 | 0.00 | 0.00 | 0.00 | 57 | 1012.0 |
| 20260505175419 | 58 | 32 | 8.0 | 16.0 | 0.00 | 0.00 | 0.00 | 58 | 1012.0 |
| 20260505175249 | 58 | 28 | 8.0 | 10.0 | 0.00 | 0.00 | 0.00 | 58 | 1012.0 |
| 20260505175119 | 58 | 23 | 9.0 | 12.0 | 0.00 | 0.00 | 0.00 | 57 | 1012.0 |
| 20260505175019 | 58 | 32 | 9.0 | 12.0 | 0.00 | 0.00 | 0.00 | 57 | 1012.0 |
| 20260505174849 | 58 | 40 | 10.0 | 14.0 | 0.00 | 0.00 | 0.00 | 58 | 1012.1 |
| 20260505174719 | 58 | 32 | 10.0 | 12.0 | 0.00 | 0.00 | 0.00 | 57 | 1012.1 |
| 20260505174619 | 58 | 45 | 8.0 | 12.0 | 0.00 | 0.00 | 0.00 | 58 | 1012.1 |
| 20260505174519 | 58 | 43 | 8.0 | 9.0 | 0.00 | 0.00 | 0.00 | 58 | 1012.1 |
| 20260505174419 | 58 | 34 | 8.0 | 10.0 | 0.00 | 0.00 | 0.00 | 58 | 1012.1 |
| 20260505174319 | 58 | 38 | 9.0 | 12.0 | 0.00 | 0.00 | 0.00 | 57 | 1012.2 |
| 20260505174149 | 58 | 29 | 7.0 | 12.0 | 0.00 | 0.00 | 0.00 | 57 | 1012.1 |
| 20260505174019 | 58 | 28 | 6.0 | 9.0 | 0.00 | 0.00 | 0.00 | 58 | 1012.1 |
| 20260505173919 | 58 | 44 | 7.0 | 7.0 | 0.00 | 0.00 | 0.00 | 57 | 1012.1 |
| 20260505173819 | 58 | 27 | 9.0 | 12.0 | 0.00 | 0.00 | 0.00 | 57 | 1012.1 |
| 20260505173719 | 58 | 28 | 8.0 | 12.0 | 0.00 | 0.00 | 0.00 | 57 | 1012.1 |
| 20260505173618 | 58 | 30 | 8.0 | 12.0 | 0.00 | 0.00 | 0.00 | 58 | 1012.2 |
| 20260505173518 | 58 | 43 | 7.0 | 9.0 | 0.00 | 0.00 | 0.00 | 58 | 1012.1 |
| 20260505173418 | 58 | 47 | 8.0 | 9.0 | 0.00 | 0.00 | 0.00 | 57 | 1012.2 |
| 20260505173318 | 58 | 34 | 8.0 | 12.0 | 0.00 | 0.00 | 0.00 | 58 | 1012.1 |
| 20260505173218 | 58 | 45 | 9.0 | 12.0 | 0.00 | 0.00 | 0.00 | 58 | 1012.1 |
| 20260505173118 | 58 | 40 | 13.0 | 15.0 | 0.00 | 0.00 | 0.00 | 57 | 1012.1 |
| 20260505173018 | 58 | 38 | 13.0 | 16.0 | 0.00 | 0.00 | 0.00 | 57 | 1012.1 |
| 20260505172918 | 58 | 37 | 12.0 | 14.0 | 0.00 | 0.00 | 0.00 | 57 | 1012.1 |
| 20260505172818 | 58 | 27 | 9.0 | 14.0 | 0.00 | 0.00 | 0.00 | 58 | 1012.1 |
| 20260505172718 | 58 | 46 | 8.0 | 12.0 | 0.00 | 0.00 | 0.00 | 58 | 1012.2 |
| 20260505172618 | 58 | 43 | 9.0 | 10.0 | 0.00 | 0.00 | 0.00 | 58 | 1012.2 |
| 20260505172448 | 58 | 54 | 9.0 | 12.0 | 0.00 | 0.00 | 0.00 | 58 | 1012.2 |
| 20260505172348 | 59 | 45 | 10.0 | 12.0 | 0.00 | 0.00 | 0.00 | 57 | 1012.2 |
| 20260505172248 | 59 | 48 | 10.0 | 13.0 | 0.00 | 0.00 | 0.00 | 57 | 1012.2 |
| 20260505172148 | 59 | 52 | 10.0 | 14.0 | 0.00 | 0.00 | 0.00 | 58 | 1012.2 |
| 20260505172048 | 59 | 47 | 9.0 | 16.0 | 0.00 | 0.00 | 0.00 | 58 | 1012.2 |
| 20260505171918 | 59 | 55 | 10.0 | 12.0 | 0.00 | 0.00 | 0.00 | 57 | 1012.2 |
| 20260505171817 | 59 | 52 | 8.0 | 12.0 | 0.00 | 0.00 | 0.00 | 58 | 1012.2 |
| 20260505171717 | 59 | 49 | 9.0 | 12.0 | 0.00 | 0.00 | 0.00 | 58 | 1012.2 |
| 20260505171617 | 59 | 39 | 10.0 | 13.0 | 0.00 | 0.00 | 0.00 | 58 | 1012.2 |
| 20260505171517 | 59 | 42 | 10.0 | 12.0 | 0.00 | 0.00 | 0.00 | 58 | 1012.3 |
| 20260505171417 | 59 | 36 | 8.0 | 12.0 | 0.00 | 0.00 | 0.00 | 58 | 1012.3 |
| 20260505171247 | 59 | 32 | 9.0 | 12.0 | 0.00 | 0.00 | 0.00 | 57 | 1012.3 |
| 20260505171147 | 59 | 45 | 8.0 | 12.0 | 0.00 | 0.00 | 0.00 | 57 | 1012.2 |
| 20260505171047 | 59 | 45 | 9.0 | 10.0 | 0.00 | 0.00 | 0.00 | 57 | 1012.3 |
| 20260505170947 | 59 | 49 | 12.0 | 13.0 | 0.00 | 0.00 | 0.00 | 57 | 1012.2 |
| 20260505170847 | 59 | 57 | 10.0 | 15.0 | 0.00 | 0.00 | 0.00 | 57 | 1012.2 |
| 20260505170747 | 59 | 52 | 10.0 | 13.0 | 0.00 | 0.00 | 0.00 | 57 | 1012.3 |
| 20260505170647 | 59 | 36 | 10.0 | 14.0 | 0.00 | 0.00 | 0.00 | 57 | 1012.2 |
| 20260505170547 | 59 | 31 | 12.0 | 14.0 | 0.00 | 0.00 | 0.00 | 57 | 1012.3 |
| 20260505170447 | 59 | 34 | 10.0 | 13.0 | 0.00 | 0.00 | 0.00 | 58 | 1012.3 |
| 20260505170347 | 59 | 31 | 12.0 | 15.0 | 0.00 | 0.00 | 0.00 | 57 | 1012.3 |
| 20260505170247 | 59 | 35 | 9.0 | 15.0 | 0.00 | 0.00 | 0.00 | 57 | 1012.3 |
| 20260505170147 | 59 | 20 | 8.0 | 12.0 | 0.00 | 0.00 | 0.00 | 57 | 1012.2 |
| 20260505170047 | 59 | 28 | 9.0 | 12.0 | 0.00 | 0.00 | 0.00 | 56 | 1012.3 |
| 20260505165946 | 59 | 24 | 7.0 | 10.0 | 0.00 | 0.00 | 0.00 | 57 | 1012.3 |
| 20260505165846 | 59 | 42 | 5.0 | 6.0 | 0.00 | 0.00 | 0.00 | 58 | 1012.3 |
| 20260505165746 | 59 | 46 | 5.0 | 6.0 | 0.00 | 0.00 | 0.00 | 58 | 1012.3 |
| 20260505165646 | 59 | 53 | 6.0 | 8.0 | 0.00 | 0.00 | 0.00 | 57 | 1012.3 |
| 20260505165546 | 59 | 31 | 6.0 | 9.0 | 0.00 | 0.00 | 0.00 | 58 | 1012.3 |
| 20260505165446 | 59 | 32 | 6.0 | 8.0 | 0.00 | 0.00 | 0.00 | 57 | 1012.3 |
| 20260505165316 | 59 | 48 | 6.0 | 9.0 | 0.00 | 0.00 | 0.00 | 57 | 1012.3 |
| 20260505165216 | 59 | 37 | 6.0 | 9.0 | 0.00 | 0.00 | 0.00 | 57 | 1012.3 |
| 20260505165116 | 59 | 49 | 7.0 | 8.0 | 0.00 | 0.00 | 0.00 | 57 | 1012.3 |
| 20260505165016 | 59 | 46 | 8.0 | 9.0 | 0.00 | 0.00 | 0.00 | 56 | 1012.3 |
| 20260505164916 | 59 | 31 | 8.0 | 12.0 | 0.00 | 0.00 | 0.00 | 57 | 1012.3 |
| 20260505164816 | 59 | 49 | 7.0 | 8.0 | 0.00 | 0.00 | 0.00 | 57 | 1012.3 |
| 20260505164716 | 59 | 46 | 7.0 | 10.0 | 0.00 | 0.00 | 0.00 | 57 | 1012.3 |
| 20260505164616 | 59 | 37 | 8.0 | 9.0 | 0.00 | 0.00 | 0.00 | 56 | 1012.3 |
| 20260505164516 | 59 | 26 | 9.0 | 12.0 | 0.00 | 0.00 | 0.00 | 57 | 1012.3 |
| 20260505164416 | 59 | 29 | 10.0 | 12.0 | 0.00 | 0.00 | 0.00 | 56 | 1012.3 |
| 20260505164316 | 59 | 27 | 9.0 | 13.0 | 0.00 | 0.00 | 0.00 | 57 | 1012.3 |
| 20260505164216 | 59 | 52 | 8.0 | 12.0 | 0.00 | 0.00 | 0.00 | 57 | 1012.3 |
| 20260505164116 | 59 | 46 | 7.0 | 10.0 | 0.00 | 0.00 | 0.00 | 57 | 1012.3 |
| 20260505164028 | 60 | 26 | 7.0 | 10.0 | 0.00 | 0.00 | 0.00 | 58 | 1012.3 |
| 20260505153342 | 60 | 354 | 10.0 | 15.0 | 0.00 | 0.00 | 0.00 | 57 | 1012.4 |
| 20260505153242 | 60 | 6 | 12.0 | 14.0 | 0.00 | 0.00 | 0.00 | 57 | 1012.4 |
| 20260505153142 | 60 | 350 | 12.0 | 15.0 | 0.00 | 0.00 | 0.00 | 56 | 1012.4 |
| 20260505153012 | 60 | 354 | 10.0 | 14.0 | 0.00 | 0.00 | 0.00 | 56 | 1012.4 |
| 20260505152912 | 60 | 346 | 14.0 | 16.0 | 0.00 | 0.00 | 0.00 | 55 | 1012.4 |
| 20260505152812 | 60 | 340 | 12.0 | 16.0 | 0.00 | 0.00 | 0.00 | 55 | 1012.4 |
| 20260505152711 | 60 | 356 | 8.0 | 16.0 | 0.00 | 0.00 | 0.00 | 57 | 1012.4 |
| 20260505152611 | 60 | 41 | 8.0 | 10.0 | 0.00 | 0.00 | 0.00 | 56 | 1012.3 |
| 20260505152441 | 60 | 0 | 9.0 | 12.0 | 0.00 | 0.00 | 0.00 | 56 | 1012.4 |
| 20260505152341 | 60 | 30 | 10.0 | 13.0 | 0.00 | 0.00 | 0.00 | 56 | 1012.4 |
| 20260505152241 | 60 | 28 | 9.0 | 15.0 | 0.00 | 0.00 | 0.00 | 57 | 1012.4 |
| 20260505152141 | 60 | 37 | 9.0 | 12.0 | 0.00 | 0.00 | 0.00 | 57 | 1012.3 |
| 20260505152041 | 60 | 28 | 10.0 | 12.0 | 0.00 | 0.00 | 0.00 | 57 | 1012.4 |
| 20260505151941 | 60 | 1 | 10.0 | 13.0 | 0.00 | 0.00 | 0.00 | 57 | 1012.4 |
| 20260505151841 | 60 | 17 | 10.0 | 14.0 | 0.00 | 0.00 | 0.00 | 57 | 1012.4 |
| 20260505151711 | 60 | 34 | 10.0 | 14.0 | 0.00 | 0.00 | 0.00 | 57 | 1012.4 |
| 20260505151611 | 60 | 351 | 9.0 | 13.0 | 0.00 | 0.00 | 0.00 | 56 | 1012.4 |
| 20260505151511 | 60 | 5 | 10.0 | 15.0 | 0.00 | 0.00 | 0.00 | 57 | 1012.4 |
| 20260505151411 | 59 | 14 | 9.0 | 14.0 | 0.00 | 0.00 | 0.00 | 57 | 1012.4 |
| 20260505151311 | 59 | 39 | 10.0 | 12.0 | 0.00 | 0.00 | 0.00 | 57 | 1012.4 |
| 20260505151211 | 59 | 22 | 10.0 | 13.0 | 0.00 | 0.00 | 0.00 | 56 | 1012.5 |
| 20260505151111 | 59 | 34 | 12.0 | 14.0 | 0.00 | 0.00 | 0.00 | 56 | 1012.5 |
| 20260505151011 | 59 | 23 | 10.0 | 16.0 | 0.00 | 0.00 | 0.00 | 56 | 1012.5 |
| 20260505150911 | 59 | 52 | 12.0 | 13.0 | 0.00 | 0.00 | 0.00 | 56 | 1012.5 |
| 20260505150811 | 59 | 25 | 14.0 | 17.0 | 0.00 | 0.00 | 0.00 | 55 | 1012.5 |
| 20260505150711 | 59 | 30 | 13.0 | 16.0 | 0.00 | 0.00 | 0.00 | 55 | 1012.5 |
| 20260505150611 | 59 | 19 | 13.0 | 16.0 | 0.00 | 0.00 | 0.00 | 57 | 1012.5 |
| 20260505150511 | 59 | 30 | 10.0 | 16.0 | 0.00 | 0.00 | 0.00 | 58 | 1012.5 |
| 20260505150410 | 59 | 28 | 12.0 | 13.0 | 0.00 | 0.00 | 0.00 | 58 | 1012.5 |
| 20260505150310 | 59 | 32 | 14.0 | 16.0 | 0.00 | 0.00 | 0.00 | 58 | 1012.5 |
| 20260505150210 | 59 | 28 | 14.0 | 17.0 | 0.00 | 0.00 | 0.00 | 58 | 1012.5 |
| 20260505150110 | 60 | 23 | 13.0 | 18.0 | 0.00 | 0.00 | 0.00 | 57 | 1012.5 |
| 20260505140637 | 61 | 23 | 12.0 | 17.0 | 0.00 | 0.00 | 0.00 | 58 | 1012.6 |
| 20260505140537 | 61 | 25 | 13.0 | 14.0 | 0.00 | 0.00 | 0.00 | 58 | 1012.6 |
| 20260505140437 | 61 | 29 | 16.0 | 18.0 | 0.00 | 0.00 | 0.00 | 57 | 1012.6 |
| 20260505140337 | 61 | 31 | 17.0 | 18.0 | 0.00 | 0.00 | 0.00 | 57 | 1012.6 |
| 20260505140237 | 61 | 17 | 15.0 | 22.0 | 0.00 | 0.00 | 0.00 | 58 | 1012.6 |
| 20260505140137 | 61 | 31 | 12.0 | 17.0 | 0.00 | 0.00 | 0.00 | 57 | 1012.6 |
| 20260505130304 | 60 | 20 | 12.0 | 15.0 | 0.00 | 0.00 | 0.00 | 61 | 1012.8 |
| 20260505130204 | 60 | 10 | 12.0 | 15.0 | 0.00 | 0.00 | 0.00 | 61 | 1012.8 |
| 20260505124934 | 59 | 23 | 9.0 | 12.0 | 0.00 | 0.00 | 0.00 | 61 | 1012.9 |
| 20260505124834 | 59 | 14 | 12.0 | 13.0 | 0.00 | 0.00 | 0.00 | 61 | 1012.9 |
| 20260505124704 | 59 | 30 | 12.0 | 15.0 | 0.00 | 0.00 | 0.00 | 61 | 1012.9 |
| 20260505124604 | 59 | 28 | 10.0 | 13.0 | 0.00 | 0.00 | 0.00 | 60 | 1012.9 |
| 20260505124434 | 59 | 27 | 10.0 | 13.0 | 0.00 | 0.00 | 0.00 | 60 | 1012.9 |
| 20260505124334 | 59 | 47 | 10.0 | 13.0 | 0.00 | 0.00 | 0.00 | 60 | 1012.9 |
| 20260505124234 | 60 | 26 | 14.0 | 15.0 | 0.00 | 0.00 | 0.00 | 59 | 1012.9 |
| 20260505124104 | 60 | 25 | 13.0 | 18.0 | 0.00 | 0.00 | 0.00 | 61 | 1012.9 |
| 20260505124004 | 60 | 16 | 13.0 | 15.0 | 0.00 | 0.00 | 0.00 | 61 | 1012.9 |
| 20260505123904 | 60 | 30 | 13.0 | 16.0 | 0.00 | 0.00 | 0.00 | 61 | 1012.9 |
| 20260505123734 | 59 | 22 | 13.0 | 14.0 | 0.00 | 0.00 | 0.00 | 60 | 1012.9 |
| 20260505123634 | 60 | 33 | 13.0 | 16.0 | 0.00 | 0.00 | 0.00 | 60 | 1012.9 |
| 20260505123504 | 60 | 32 | 12.0 | 15.0 | 0.00 | 0.00 | 0.00 | 61 | 1012.9 |
| 20260505123334 | 60 | 32 | 13.0 | 15.0 | 0.00 | 0.00 | 0.00 | 60 | 1012.9 |
| 20260505123234 | 60 | 33 | 10.0 | 14.0 | 0.00 | 0.00 | 0.00 | 61 | 1012.9 |
| 20260505123104 | 60 | 14 | 9.0 | 12.0 | 0.00 | 0.00 | 0.00 | 60 | 1012.9 |
| 20260505122934 | 59 | 26 | 10.0 | 14.0 | 0.00 | 0.00 | 0.00 | 60 | 1013.0 |
| 20260505122804 | 59 | 9 | 13.0 | 14.0 | 0.00 | 0.00 | 0.00 | 60 | 1013.1 |
| 20260505122704 | 60 | 39 | 15.0 | 17.0 | 0.00 | 0.00 | 0.00 | 60 | 1013.0 |
| 20260505122604 | 59 | 41 | 12.0 | 17.0 | 0.00 | 0.00 | 0.00 | 62 | 1013.0 |
| 20260505122434 | 59 | 23 | 12.0 | 14.0 | 0.00 | 0.00 | 0.00 | 61 | 1013.0 |
| 20260505122334 | 59 | 28 | 13.0 | 15.0 | 0.00 | 0.00 | 0.00 | 60 | 1013.0 |
| 20260505122234 | 59 | 7 | 13.0 | 16.0 | 0.00 | 0.00 | 0.00 | 60 | 1013.0 |
| 20260505122134 | 60 | 42 | 13.0 | 16.0 | 0.00 | 0.00 | 0.00 | 62 | 1013.1 |
| 20260505122034 | 60 | 19 | 10.0 | 14.0 | 0.00 | 0.00 | 0.00 | 61 | 1013.0 |
| 20260505121904 | 60 | 8 | 9.0 | 13.0 | 0.00 | 0.00 | 0.00 | 61 | 1013.0 |
| 20260505121734 | 60 | 14 | 9.0 | 12.0 | 0.00 | 0.00 | 0.00 | 62 | 1013.1 |
| 20260505121634 | 59 | 22 | 8.0 | 13.0 | 0.00 | 0.00 | 0.00 | 62 | 1013.1 |
| 20260505121534 | 59 | 353 | 7.0 | 9.0 | 0.00 | 0.00 | 0.00 | 61 | 1013.0 |
| 20260505121404 | 59 | 7 | 8.0 | 12.0 | 0.00 | 0.00 | 0.00 | 62 | 1013.0 |
| 20260505121304 | 59 | 41 | 8.0 | 10.0 | 0.00 | 0.00 | 0.00 | 61 | 1013.0 |
| 20260505121204 | 59 | 40 | 12.0 | 13.0 | 0.00 | 0.00 | 0.00 | 62 | 1013.0 |
| 20260505121034 | 59 | 29 | 10.0 | 13.0 | 0.00 | 0.00 | 0.00 | 62 | 1013.0 |
| 20260505120934 | 59 | 32 | 10.0 | 12.0 | 0.00 | 0.00 | 0.00 | 61 | 1013.1 |
| 20260505120834 | 59 | 14 | 12.0 | 15.0 | 0.00 | 0.00 | 0.00 | 62 | 1013.1 |
| 20260505120734 | 59 | 27 | 9.0 | 16.0 | 0.00 | 0.00 | 0.00 | 63 | 1013.0 |
| 20260505120604 | 59 | 25 | 9.0 | 12.0 | 0.00 | 0.00 | 0.00 | 62 | 1013.0 |
| 20260505120504 | 59 | 31 | 10.0 | 12.0 | 0.00 | 0.00 | 0.00 | 64 | 1013.0 |
| 20260505120404 | 59 | 16 | 8.0 | 13.0 | 0.00 | 0.00 | 0.00 | 63 | 1013.0 |
| 20260505120234 | 59 | 2 | 9.0 | 9.0 | 0.00 | 0.00 | 0.00 | 62 | 1013.1 |
| 20260505120104 | 59 | 39 | 9.0 | 13.0 | 0.00 | 0.00 | 0.00 | 63 | 1013.1 |
| 20260505120005 | 59 | 26 | 10.0 | 12.0 | 0.00 | 0.00 | 0.00 | 61 | 1013.1 |
| 20260505115904 | 59 | 22 | 10.0 | 14.0 | 0.00 | 0.00 | 0.00 | 63 | 1013.1 |
| 20260505115804 | 59 | 31 | 9.0 | 13.0 | 0.00 | 0.00 | 0.00 | 63 | 1013.1 |
| 20260505115634 | 59 | 6 | 8.0 | 12.0 | 0.00 | 0.00 | 0.00 | 62 | 1013.1 |
| 20260505115534 | 59 | 359 | 8.0 | 10.0 | 0.00 | 0.00 | 0.00 | 62 | 1013.1 |
| 20260505115434 | 59 | 356 | 8.0 | 14.0 | 0.00 | 0.00 | 0.00 | 63 | 1013.1 |
| 20260505115305 | 59 | 344 | 7.0 | 9.0 | 0.00 | 0.00 | 0.00 | 64 | 1013.1 |
| 20260505115134 | 59 | 4 | 6.0 | 7.0 | 0.00 | 0.00 | 0.00 | 64 | 1013.1 |
| 20260505115034 | 59 | 35 | 7.0 | 9.0 | 0.00 | 0.00 | 0.00 | 65 | 1013.1 |
| 20260505114904 | 59 | 24 | 7.0 | 8.0 | 0.00 | 0.00 | 0.00 | 64 | 1013.1 |
| 20260505114734 | 59 | 17 | 7.0 | 8.0 | 0.00 | 0.00 | 0.00 | 65 | 1013.1 |
| 20260505114634 | 59 | 10 | 7.0 | 9.0 | 0.00 | 0.00 | 0.00 | 65 | 1013.1 |
| 20260505114534 | 59 | 344 | 6.0 | 9.0 | 0.00 | 0.00 | 0.00 | 65 | 1013.1 |
| 20260505114404 | 58 | 0 | 6.0 | 10.0 | 0.00 | 0.00 | 0.00 | 66 | 1013.2 |
| 20260505114234 | 58 | 14 | 7.0 | 8.0 | 0.00 | 0.00 | 0.00 | 65 | 1013.2 |
| 20260505114134 | 58 | 33 | 8.0 | 10.0 | 0.00 | 0.00 | 0.00 | 66 | 1013.2 |
| 20260505114034 | 58 | 50 | 8.0 | 10.0 | 0.00 | 0.00 | 0.00 | 66 | 1013.2 |
| 20260505113904 | 58 | 19 | 9.0 | 10.0 | 0.00 | 0.00 | 0.00 | 65 | 1013.2 |
| 20260505113734 | 58 | 41 | 8.0 | 10.0 | 0.00 | 0.00 | 0.00 | 65 | 1013.2 |
| 20260505113604 | 58 | 30 | 9.0 | 12.0 | 0.00 | 0.00 | 0.00 | 65 | 1013.2 |
| 20260505113504 | 58 | 42 | 9.0 | 12.0 | 0.00 | 0.00 | 0.00 | 66 | 1013.2 |
| 20260505113404 | 57 | 55 | 9.0 | 12.0 | 0.00 | 0.00 | 0.00 | 65 | 1013.2 |
| 20260505113234 | 58 | 37 | 9.0 | 12.0 | 0.00 | 0.00 | 0.00 | 66 | 1013.1 |
| 20260505113104 | 57 | 51 | 7.0 | 12.0 | 0.00 | 0.00 | 0.00 | 68 | 1013.2 |
| 20260505112934 | 57 | 47 | 7.0 | 7.0 | 0.00 | 0.00 | 0.00 | 67 | 1013.2 |
| 20260505112804 | 57 | 44 | 6.0 | 8.0 | 0.00 | 0.00 | 0.00 | 68 | 1013.2 |
| 20260505112634 | 57 | 43 | 8.0 | 10.0 | 0.00 | 0.00 | 0.00 | 67 | 1013.2 |
| 20260505112534 | 57 | 59 | 7.0 | 9.0 | 0.00 | 0.00 | 0.00 | 68 | 1013.2 |
| 20260505112434 | 57 | 44 | 8.0 | 10.0 | 0.00 | 0.00 | 0.00 | 67 | 1013.2 |
| 20260505112334 | 57 | 21 | 7.0 | 10.0 | 0.00 | 0.00 | 0.00 | 67 | 1013.3 |
| 20260505112234 | 57 | 36 | 7.0 | 8.0 | 0.00 | 0.00 | 0.00 | 67 | 1013.3 |
| 20260505112104 | 57 | 42 | 9.0 | 12.0 | 0.00 | 0.00 | 0.00 | 67 | 1013.3 |
| 20260505111934 | 57 | 20 | 8.0 | 12.0 | 0.00 | 0.00 | 0.00 | 67 | 1013.3 |
| 20260505111834 | 57 | 36 | 9.0 | 12.0 | 0.00 | 0.00 | 0.00 | 67 | 1013.3 |
| 20260505111704 | 57 | 44 | 9.0 | 12.0 | 0.00 | 0.00 | 0.00 | 67 | 1013.2 |
| 20260505111604 | 57 | 62 | 7.0 | 12.0 | 0.00 | 0.00 | 0.00 | 67 | 1013.2 |
| 20260505111434 | 57 | 54 | 7.0 | 10.0 | 0.00 | 0.00 | 0.00 | 68 | 1013.3 |
| 20260505111334 | 57 | 36 | 8.0 | 9.0 | 0.00 | 0.00 | 0.00 | 67 | 1013.3 |
| 20260505111204 | 57 | 35 | 7.0 | 12.0 | 0.00 | 0.00 | 0.00 | 67 | 1013.3 |
| 20260505111104 | 57 | 1 | 9.0 | 12.0 | 0.00 | 0.00 | 0.00 | 68 | 1013.3 |
| 20260505110934 | 57 | 28 | 7.0 | 9.0 | 0.00 | 0.00 | 0.00 | 68 | 1013.3 |
| 20260505110834 | 57 | 25 | 7.0 | 9.0 | 0.00 | 0.00 | 0.00 | 67 | 1013.3 |
| 20260505110704 | 57 | 24 | 7.0 | 10.0 | 0.00 | 0.00 | 0.00 | 68 | 1013.3 |
| 20260505110604 | 57 | 53 | 7.0 | 9.0 | 0.00 | 0.00 | 0.00 | 68 | 1013.3 |
| 20260505110504 | 57 | 54 | 7.0 | 8.0 | 0.00 | 0.00 | 0.00 | 67 | 1013.3 |
| 20260505110334 | 57 | 51 | 8.0 | 12.0 | 0.00 | 0.00 | 0.00 | 68 | 1013.2 |
| 20260505110234 | 57 | 25 | 9.0 | 12.0 | 0.00 | 0.00 | 0.00 | 67 | 1013.2 |
| 20260505110134 | 57 | 44 | 10.0 | 13.0 | 0.00 | 0.00 | 0.00 | 67 | 1013.2 |
| 20260505102132 | 57 | 37 | 10.0 | 12.0 | 0.00 | 0.00 | 0.00 | 70 | 1013.5 |
| 20260505102031 | 57 | 54 | 8.0 | 15.0 | 0.00 | 0.00 | 0.00 | 70 | 1013.4 |
| 20260505101931 | 57 | 47 | 9.0 | 9.0 | 0.00 | 0.00 | 0.00 | 69 | 1013.5 |
| 20260505101831 | 57 | 56 | 9.0 | 12.0 | 0.00 | 0.00 | 0.00 | 70 | 1013.5 |
| 20260505101731 | 57 | 56 | 9.0 | 12.0 | 0.00 | 0.00 | 0.00 | 69 | 1013.4 |
| 20260505101631 | 57 | 46 | 9.0 | 12.0 | 0.00 | 0.00 | 0.00 | 69 | 1013.5 |
| 20260505101531 | 57 | 41 | 8.0 | 12.0 | 0.00 | 0.00 | 0.00 | 70 | 1013.4 |
| 20260505101431 | 57 | 51 | 10.0 | 12.0 | 0.00 | 0.00 | 0.00 | 69 | 1013.4 |
| 20260505101331 | 57 | 44 | 12.0 | 14.0 | 0.00 | 0.00 | 0.00 | 69 | 1013.4 |
| 20260505101231 | 57 | 51 | 12.0 | 16.0 | 0.00 | 0.00 | 0.00 | 70 | 1013.5 |
| 20260505101131 | 57 | 54 | 10.0 | 13.0 | 0.00 | 0.00 | 0.00 | 70 | 1013.5 |
| 20260505101031 | 57 | 49 | 12.0 | 13.0 | 0.00 | 0.00 | 0.00 | 69 | 1013.5 |
| 20260505100931 | 57 | 41 | 13.0 | 15.0 | 0.00 | 0.00 | 0.00 | 70 | 1013.5 |
| 20260505100831 | 57 | 48 | 12.0 | 15.0 | 0.00 | 0.00 | 0.00 | 70 | 1013.5 |
| 20260505100731 | 57 | 54 | 12.0 | 15.0 | 0.00 | 0.00 | 0.00 | 70 | 1013.4 |
| 20260505100631 | 57 | 64 | 10.0 | 14.0 | 0.00 | 0.00 | 0.00 | 70 | 1013.5 |
| 20260505100530 | 57 | 65 | 9.0 | 14.0 | 0.00 | 0.00 | 0.00 | 71 | 1013.5 |
| 20260505100400 | 57 | 45 | 7.0 | 13.0 | 0.00 | 0.00 | 0.00 | 72 | 1013.5 |
| 20260505100300 | 57 | 59 | 8.0 | 10.0 | 0.00 | 0.00 | 0.00 | 72 | 1013.5 |
| 20260505100200 | 57 | 61 | 7.0 | 10.0 | 0.00 | 0.00 | 0.00 | 71 | 1013.5 |
| 20260505100100 | 56 | 53 | 10.0 | 13.0 | 0.00 | 0.00 | 0.00 | 70 | 1013.5 |
| 20260505100000 | 57 | 52 | 13.0 | 14.0 | 0.00 | 0.00 | 0.00 | 71 | 1013.5 |
| 20260505095900 | 57 | 53 | 13.0 | 16.0 | 0.00 | 0.00 | 0.00 | 71 | 1013.5 |
| 20260505095800 | 57 | 50 | 10.0 | 16.0 | 0.00 | 0.00 | 0.00 | 72 | 1013.5 |
| 20260505095700 | 57 | 59 | 10.0 | 14.0 | 0.00 | 0.00 | 0.00 | 71 | 1013.5 |
| 20260505095600 | 57 | 49 | 10.0 | 13.0 | 0.00 | 0.00 | 0.00 | 72 | 1013.5 |
| 20260505095500 | 57 | 43 | 9.0 | 13.0 | 0.00 | 0.00 | 0.00 | 72 | 1013.5 |
| 20260505095400 | 57 | 48 | 9.0 | 14.0 | 0.00 | 0.00 | 0.00 | 72 | 1013.5 |
| 20260505095300 | 57 | 56 | 10.0 | 12.0 | 0.00 | 0.00 | 0.00 | 72 | 1013.6 |
| 20260505095200 | 56 | 54 | 10.0 | 14.0 | 0.00 | 0.00 | 0.00 | 73 | 1013.6 |
| 20260505095100 | 56 | 52 | 10.0 | 13.0 | 0.00 | 0.00 | 0.00 | 73 | 1013.5 |
| 20260505095000 | 56 | 33 | 9.0 | 12.0 | 0.00 | 0.00 | 0.00 | 72 | 1013.5 |
| 20260505094859 | 56 | 37 | 9.0 | 13.0 | 0.00 | 0.00 | 0.00 | 74 | 1013.5 |
| 20260505094759 | 56 | 35 | 8.0 | 9.0 | 0.00 | 0.00 | 0.00 | 74 | 1013.5 |
| 20260505094659 | 56 | 45 | 10.0 | 10.0 | 0.00 | 0.00 | 0.00 | 73 | 1013.5 |
| 20260505094529 | 56 | 53 | 9.0 | 15.0 | 0.00 | 0.00 | 0.00 | 74 | 1013.5 |
| 20260505094359 | 55 | 62 | 8.0 | 12.0 | 0.00 | 0.00 | 0.00 | 74 | 1013.5 |
| 20260505094229 | 55 | 50 | 9.0 | 12.0 | 0.00 | 0.00 | 0.00 | 74 | 1013.5 |
| 20260505094059 | 55 | 48 | 9.0 | 13.0 | 0.00 | 0.00 | 0.00 | 74 | 1013.5 |
| 20260505093959 | 55 | 47 | 10.0 | 13.0 | 0.00 | 0.00 | 0.00 | 74 | 1013.5 |
| 20260505093829 | 55 | 43 | 10.0 | 14.0 | 0.00 | 0.00 | 0.00 | 73 | 1013.6 |
| 20260505093729 | 55 | 49 | 12.0 | 13.0 | 0.00 | 0.00 | 0.00 | 74 | 1013.6 |
| 20260505093629 | 55 | 48 | 12.0 | 14.0 | 0.00 | 0.00 | 0.00 | 73 | 1013.6 |
| 20260505093529 | 55 | 41 | 12.0 | 13.0 | 0.00 | 0.00 | 0.00 | 73 | 1013.6 |
| 20260505093429 | 55 | 45 | 10.0 | 16.0 | 0.00 | 0.00 | 0.00 | 74 | 1013.6 |
| 20260505093329 | 55 | 48 | 8.0 | 12.0 | 0.00 | 0.00 | 0.00 | 74 | 1013.6 |
| 20260505093159 | 55 | 52 | 9.0 | 9.0 | 0.00 | 0.00 | 0.00 | 73 | 1013.6 |
| 20260505093059 | 55 | 60 | 13.0 | 16.0 | 0.00 | 0.00 | 0.00 | 73 | 1013.6 |
| 20260505092959 | 55 | 54 | 9.0 | 14.0 | 0.00 | 0.00 | 0.00 | 74 | 1013.6 |
| 20260505092859 | 55 | 57 | 8.0 | 12.0 | 0.00 | 0.00 | 0.00 | 74 | 1013.6 |
| 20260505092759 | 55 | 53 | 12.0 | 17.0 | 0.00 | 0.00 | 0.00 | 73 | 1013.6 |
| 20260505092659 | 55 | 56 | 10.0 | 14.0 | 0.00 | 0.00 | 0.00 | 73 | 1013.6 |
| 20260505092559 | 55 | 55 | 12.0 | 14.0 | 0.00 | 0.00 | 0.00 | 73 | 1013.6 |
| 20260505092429 | 55 | 58 | 10.0 | 17.0 | 0.00 | 0.00 | 0.00 | 74 | 1013.6 |
| 20260505092259 | 55 | 52 | 9.0 | 9.0 | 0.00 | 0.00 | 0.00 | 74 | 1013.6 |
| 20260505092159 | 55 | 47 | 10.0 | 13.0 | 0.00 | 0.00 | 0.00 | 74 | 1013.6 |
| 20260505092059 | 55 | 55 | 12.0 | 13.0 | 0.00 | 0.00 | 0.00 | 73 | 1013.6 |
| 20260505091929 | 55 | 47 | 12.0 | 16.0 | 0.00 | 0.00 | 0.00 | 73 | 1013.6 |
| 20260505091759 | 55 | 65 | 9.0 | 15.0 | 0.00 | 0.00 | 0.00 | 74 | 1013.6 |
| 20260505091659 | 55 | 60 | 10.0 | 14.0 | 0.00 | 0.00 | 0.00 | 74 | 1013.7 |
| 20260505091559 | 55 | 53 | 10.0 | 15.0 | 0.00 | 0.00 | 0.00 | 74 | 1013.6 |
| 20260505091429 | 55 | 58 | 10.0 | 12.0 | 0.00 | 0.00 | 0.00 | 74 | 1013.7 |
| 20260505091329 | 55 | 51 | 9.0 | 12.0 | 0.00 | 0.00 | 0.00 | 74 | 1013.7 |
| 20260505091229 | 55 | 53 | 9.0 | 12.0 | 0.00 | 0.00 | 0.00 | 74 | 1013.6 |
| 20260505091059 | 55 | 66 | 9.0 | 13.0 | 0.00 | 0.00 | 0.00 | 74 | 1013.7 |
| 20260505090929 | 55 | 51 | 8.0 | 12.0 | 0.00 | 0.00 | 0.00 | 75 | 1013.7 |
| 20260505090759 | 55 | 53 | 9.0 | 10.0 | 0.00 | 0.00 | 0.00 | 74 | 1013.6 |
| 20260505090659 | 55 | 52 | 10.0 | 12.0 | 0.00 | 0.00 | 0.00 | 75 | 1013.6 |
| 20260505090529 | 55 | 46 | 9.0 | 13.0 | 0.00 | 0.00 | 0.00 | 75 | 1013.6 |
| 20260505090429 | 55 | 61 | 9.0 | 12.0 | 0.00 | 0.00 | 0.00 | 75 | 1013.6 |
| 20260505090329 | 55 | 57 | 8.0 | 13.0 | 0.00 | 0.00 | 0.00 | 76 | 1013.6 |
| 20260505090159 | 55 | 56 | 12.0 | 15.0 | 0.00 | 0.00 | 0.00 | 75 | 1013.7 |
| 20260505090029 | 54 | 44 | 13.0 | 15.0 | 0.00 | 0.00 | 0.00 | 75 | 1013.7 |
| 20260505085859 | 54 | 47 | 14.0 | 16.0 | 0.00 | 0.00 | 0.00 | 75 | 1013.6 |
| 20260505085759 | 55 | 52 | 13.0 | 18.0 | 0.00 | 0.00 | 0.00 | 75 | 1013.6 |
| 20260505085629 | 55 | 56 | 10.0 | 14.0 | 0.00 | 0.00 | 0.00 | 75 | 1013.7 |
| 20260505085529 | 54 | 50 | 12.0 | 12.0 | 0.00 | 0.00 | 0.00 | 75 | 1013.7 |
| 20260505085429 | 54 | 53 | 14.0 | 15.0 | 0.00 | 0.00 | 0.00 | 74 | 1013.7 |
| 20260505085329 | 55 | 49 | 12.0 | 17.0 | 0.00 | 0.00 | 0.00 | 75 | 1013.7 |
| 20260505085229 | 55 | 56 | 12.0 | 15.0 | 0.00 | 0.00 | 0.00 | 75 | 1013.7 |
| 20260505085129 | 55 | 62 | 10.0 | 12.0 | 0.00 | 0.00 | 0.00 | 75 | 1013.7 |
| 20260505084959 | 55 | 59 | 12.0 | 15.0 | 0.00 | 0.00 | 0.00 | 76 | 1013.7 |
| 20260505084859 | 55 | 62 | 8.0 | 14.0 | 0.00 | 0.00 | 0.00 | 77 | 1013.7 |
| 20260505084759 | 55 | 53 | 8.0 | 10.0 | 0.00 | 0.00 | 0.00 | 76 | 1013.7 |
| 20260505084629 | 54 | 52 | 12.0 | 14.0 | 0.00 | 0.00 | 0.00 | 76 | 1013.7 |
| 20260505084529 | 55 | 48 | 12.0 | 16.0 | 0.00 | 0.00 | 0.00 | 76 | 1013.7 |
| 20260505084429 | 55 | 39 | 12.0 | 14.0 | 0.00 | 0.00 | 0.00 | 76 | 1013.7 |
| 20260505084329 | 55 | 41 | 10.0 | 14.0 | 0.00 | 0.00 | 0.00 | 76 | 1013.7 |
| 20260505084159 | 55 | 41 | 10.0 | 15.0 | 0.00 | 0.00 | 0.00 | 76 | 1013.7 |
| 20260505084059 | 55 | 48 | 10.0 | 12.0 | 0.00 | 0.00 | 0.00 | 75 | 1013.6 |
| 20260505083929 | 55 | 53 | 10.0 | 13.0 | 0.00 | 0.00 | 0.00 | 75 | 1013.6 |
| 20260505083829 | 55 | 55 | 10.0 | 14.0 | 0.00 | 0.00 | 0.00 | 75 | 1013.6 |
| 20260505083729 | 55 | 54 | 9.0 | 13.0 | 0.00 | 0.00 | 0.00 | 75 | 1013.6 |
| 20260505083629 | 55 | 61 | 12.0 | 12.0 | 0.00 | 0.00 | 0.00 | 74 | 1013.7 |
| 20260505083529 | 55 | 50 | 14.0 | 17.0 | 0.00 | 0.00 | 0.00 | 74 | 1013.6 |
| 20260505083429 | 55 | 57 | 13.0 | 18.0 | 0.00 | 0.00 | 0.00 | 74 | 1013.6 |
| 20260505083329 | 55 | 59 | 10.0 | 15.0 | 0.00 | 0.00 | 0.00 | 74 | 1013.7 |
| 20260505083229 | 55 | 49 | 10.0 | 14.0 | 0.00 | 0.00 | 0.00 | 75 | 1013.6 |
| 20260505083129 | 55 | 62 | 10.0 | 12.0 | 0.00 | 0.00 | 0.00 | 74 | 1013.6 |
| 20260505083029 | 54 | 53 | 10.0 | 13.0 | 0.00 | 0.00 | 0.00 | 74 | 1013.6 |
| 20260505082929 | 54 | 57 | 12.0 | 14.0 | 0.00 | 0.00 | 0.00 | 74 | 1013.6 |
| 20260505082829 | 55 | 61 | 13.0 | 14.0 | 0.00 | 0.00 | 0.00 | 74 | 1013.6 |
| 20260505082729 | 55 | 56 | 13.0 | 17.0 | 0.00 | 0.00 | 0.00 | 74 | 1013.6 |
| 20260505082629 | 55 | 60 | 12.0 | 14.0 | 0.00 | 0.00 | 0.00 | 74 | 1013.6 |
| 20260505082529 | 55 | 60 | 13.0 | 15.0 | 0.00 | 0.00 | 0.00 | 73 | 1013.6 |
| 20260505082428 | 55 | 60 | 15.0 | 20.0 | 0.00 | 0.00 | 0.00 | 73 | 1013.6 |
| 20260505082328 | 55 | 61 | 13.0 | 20.0 | 0.00 | 0.00 | 0.00 | 73 | 1013.6 |
| 20260505082228 | 55 | 56 | 13.0 | 14.0 | 0.00 | 0.00 | 0.00 | 72 | 1013.6 |
| 20260505082128 | 55 | 56 | 14.0 | 17.0 | 0.00 | 0.00 | 0.00 | 72 | 1013.6 |
| 20260505082028 | 55 | 56 | 13.0 | 18.0 | 0.00 | 0.00 | 0.00 | 73 | 1013.6 |
| 20260505081928 | 55 | 46 | 13.0 | 15.0 | 0.00 | 0.00 | 0.00 | 73 | 1013.6 |
| 20260505081828 | 55 | 44 | 10.0 | 16.0 | 0.00 | 0.00 | 0.00 | 75 | 1013.6 |
| 20260505081658 | 55 | 57 | 13.0 | 16.0 | 0.00 | 0.00 | 0.00 | 73 | 1013.6 |
| 20260505081558 | 55 | 47 | 13.0 | 15.0 | 0.00 | 0.00 | 0.00 | 74 | 1013.6 |
| 20260505081458 | 55 | 47 | 13.0 | 17.0 | 0.00 | 0.00 | 0.00 | 74 | 1013.7 |
| 20260505081358 | 55 | 60 | 14.0 | 18.0 | 0.00 | 0.00 | 0.00 | 74 | 1013.6 |
| 20260505081258 | 55 | 51 | 13.0 | 16.0 | 0.00 | 0.00 | 0.00 | 74 | 1013.7 |
| 20260505081158 | 55 | 52 | 10.0 | 14.0 | 0.00 | 0.00 | 0.00 | 74 | 1013.7 |
| 20260505081057 | 55 | 62 | 13.0 | 18.0 | 0.00 | 0.00 | 0.00 | 74 | 1013.7 |
| 20260505080957 | 55 | 63 | 10.0 | 17.0 | 0.00 | 0.00 | 0.00 | 75 | 1013.7 |
| 20260505080857 | 55 | 58 | 10.0 | 12.0 | 0.00 | 0.00 | 0.00 | 74 | 1013.8 |
| 20260505080757 | 54 | 62 | 14.0 | 18.0 | 0.00 | 0.00 | 0.00 | 74 | 1013.7 |
| 20260505080657 | 54 | 59 | 16.0 | 20.0 | 0.00 | 0.00 | 0.00 | 74 | 1013.7 |
| 20260505080557 | 54 | 56 | 14.0 | 20.0 | 0.00 | 0.00 | 0.00 | 74 | 1013.8 |
| 20260505080457 | 54 | 57 | 13.0 | 15.0 | 0.00 | 0.00 | 0.00 | 74 | 1013.8 |
| 20260505080357 | 54 | 58 | 15.0 | 17.0 | 0.00 | 0.00 | 0.00 | 74 | 1013.7 |
| 20260505080257 | 54 | 54 | 14.0 | 18.0 | 0.00 | 0.00 | 0.00 | 74 | 1013.7 |
| 20260505080157 | 54 | 53 | 15.0 | 20.0 | 0.00 | 0.00 | 0.00 | 75 | 1013.8 |
| 20260505080057 | 54 | 58 | 14.0 | 17.0 | 0.00 | 0.00 | 0.00 | 74 | 1013.8 |
| 20260505075957 | 54 | 52 | 15.0 | 21.0 | 0.00 | 0.00 | 0.00 | 75 | 1013.8 |
| 20260505075857 | 54 | 53 | 15.0 | 20.0 | 0.00 | 0.00 | 0.00 | 75 | 1013.8 |
| 20260505075757 | 54 | 56 | 15.0 | 18.0 | 0.00 | 0.00 | 0.00 | 75 | 1013.7 |
| 20260505075657 | 54 | 60 | 16.0 | 20.0 | 0.00 | 0.00 | 0.00 | 75 | 1013.7 |
| 20260505075557 | 54 | 48 | 14.0 | 20.0 | 0.00 | 0.00 | 0.00 | 75 | 1013.7 |
| 20260505075457 | 54 | 59 | 10.0 | 15.0 | 0.00 | 0.00 | 0.00 | 76 | 1013.7 |
| 20260505075356 | 54 | 59 | 9.0 | 12.0 | 0.00 | 0.00 | 0.00 | 76 | 1013.8 |
| 20260505075256 | 54 | 53 | 13.0 | 14.0 | 0.00 | 0.00 | 0.00 | 75 | 1013.7 |
| 20260505075156 | 54 | 47 | 16.0 | 18.0 | 0.00 | 0.00 | 0.00 | 75 | 1013.7 |
| 20260505075056 | 54 | 46 | 15.0 | 20.0 | 0.00 | 0.00 | 0.00 | 76 | 1013.7 |
| 20260505074956 | 54 | 49 | 14.0 | 17.0 | 0.00 | 0.00 | 0.00 | 76 | 1013.7 |
| 20260505074856 | 54 | 52 | 15.0 | 17.0 | 0.00 | 0.00 | 0.00 | 76 | 1013.7 |
| 20260505074756 | 54 | 51 | 14.0 | 20.0 | 0.00 | 0.00 | 0.00 | 76 | 1013.7 |
| 20260505074656 | 54 | 54 | 12.0 | 16.0 | 0.00 | 0.00 | 0.00 | 76 | 1013.7 |
| 20260505074556 | 54 | 59 | 13.0 | 16.0 | 0.00 | 0.00 | 0.00 | 76 | 1013.7 |
| 20260505074456 | 54 | 53 | 13.0 | 18.0 | 0.00 | 0.00 | 0.00 | 76 | 1013.7 |
| 20260505074356 | 54 | 56 | 14.0 | 20.0 | 0.00 | 0.00 | 0.00 | 76 | 1013.7 |
| 20260505074256 | 54 | 51 | 13.0 | 15.0 | 0.00 | 0.00 | 0.00 | 77 | 1013.7 |
| 20260505074156 | 54 | 59 | 10.0 | 16.0 | 0.00 | 0.00 | 0.00 | 78 | 1013.7 |
| 20260505074055 | 53 | 59 | 12.0 | 13.0 | 0.00 | 0.00 | 0.00 | 77 | 1013.7 |
| 20260505073955 | 53 | 57 | 12.0 | 15.0 | 0.00 | 0.00 | 0.00 | 78 | 1013.6 |
| 20260505073855 | 53 | 55 | 12.0 | 16.0 | 0.00 | 0.00 | 0.00 | 78 | 1013.6 |
| 20260505073755 | 53 | 56 | 14.0 | 17.0 | 0.00 | 0.00 | 0.00 | 78 | 1013.7 |
| 20260505073655 | 53 | 57 | 10.0 | 17.0 | 0.00 | 0.00 | 0.00 | 78 | 1013.6 |
| 20260505073555 | 53 | 56 | 12.0 | 13.0 | 0.00 | 0.00 | 0.00 | 78 | 1013.6 |
| 20260505073455 | 53 | 61 | 9.0 | 14.0 | 0.00 | 0.00 | 0.00 | 79 | 1013.6 |
| 20260505073355 | 53 | 55 | 9.0 | 12.0 | 0.00 | 0.00 | 0.00 | 79 | 1013.6 |
| 20260505073255 | 53 | 52 | 9.0 | 12.0 | 0.00 | 0.00 | 0.00 | 79 | 1013.6 |
| 20260505073155 | 53 | 59 | 9.0 | 13.0 | 0.00 | 0.00 | 0.00 | 79 | 1013.6 |
| 20260505073055 | 53 | 59 | 7.0 | 13.0 | 0.00 | 0.00 | 0.00 | 79 | 1013.6 |
| 20260505072955 | 53 | 57 | 9.0 | 12.0 | 0.00 | 0.00 | 0.00 | 79 | 1013.6 |
| 20260505072855 | 53 | 56 | 10.0 | 15.0 | 0.00 | 0.00 | 0.00 | 79 | 1013.6 |
| 20260505072754 | 53 | 55 | 9.0 | 13.0 | 0.00 | 0.00 | 0.00 | 79 | 1013.6 |
| 20260505072654 | 52 | 53 | 9.0 | 12.0 | 0.00 | 0.00 | 0.00 | 79 | 1013.6 |
| 20260505072554 | 52 | 54 | 13.0 | 13.0 | 0.00 | 0.00 | 0.00 | 79 | 1013.6 |
| 20260505072454 | 52 | 55 | 13.0 | 15.0 | 0.00 | 0.00 | 0.00 | 79 | 1013.5 |
| 20260505072354 | 52 | 53 | 12.0 | 17.0 | 0.00 | 0.00 | 0.00 | 79 | 1013.5 |
| 20260505072254 | 52 | 57 | 13.0 | 14.0 | 0.00 | 0.00 | 0.00 | 79 | 1013.5 |
| 20260505072154 | 52 | 54 | 14.0 | 15.0 | 0.00 | 0.00 | 0.00 | 79 | 1013.5 |
| 20260505072054 | 52 | 57 | 15.0 | 18.0 | 0.00 | 0.00 | 0.00 | 79 | 1013.5 |
| 20260505071954 | 52 | 47 | 14.0 | 20.0 | 0.00 | 0.00 | 0.00 | 79 | 1013.5 |
| 20260505071854 | 52 | 54 | 13.0 | 15.0 | 0.00 | 0.00 | 0.00 | 79 | 1013.5 |
| 20260505071754 | 52 | 48 | 13.0 | 15.0 | 0.00 | 0.00 | 0.00 | 79 | 1013.5 |
| 20260505071654 | 52 | 49 | 12.0 | 17.0 | 0.00 | 0.00 | 0.00 | 79 | 1013.5 |
| 20260505071554 | 52 | 51 | 13.0 | 13.0 | 0.00 | 0.00 | 0.00 | 79 | 1013.5 |
| 20260505071454 | 52 | 55 | 15.0 | 18.0 | 0.00 | 0.00 | 0.00 | 79 | 1013.5 |
| 20260505071354 | 52 | 54 | 13.0 | 16.0 | 0.00 | 0.00 | 0.00 | 79 | 1013.5 |
| 20260505071254 | 52 | 57 | 12.0 | 17.0 | 0.00 | 0.00 | 0.00 | 79 | 1013.5 |
| 20260505071154 | 52 | 58 | 15.0 | 18.0 | 0.00 | 0.00 | 0.00 | 79 | 1013.5 |
| 20260505071023 | 53 | 55 | 15.0 | 20.0 | 0.00 | 0.00 | 0.00 | 79 | 1013.6 |
| 20260505070923 | 53 | 57 | 13.0 | 17.0 | 0.00 | 0.00 | 0.00 | 79 | 1013.6 |
| 20260505070823 | 53 | 54 | 12.0 | 17.0 | 0.00 | 0.00 | 0.00 | 79 | 1013.6 |
| 20260505070723 | 53 | 49 | 13.0 | 16.0 | 0.00 | 0.00 | 0.00 | 79 | 1013.6 |
| 20260505070623 | 53 | 45 | 12.0 | 14.0 | 0.00 | 0.00 | 0.00 | 80 | 1013.6 |
| 20260505070523 | 53 | 56 | 12.0 | 14.0 | 0.00 | 0.00 | 0.00 | 80 | 1013.6 |
| 20260505070423 | 53 | 54 | 13.0 | 14.0 | 0.00 | 0.00 | 0.00 | 80 | 1013.6 |
| 20260505070323 | 53 | 58 | 13.0 | 16.0 | 0.00 | 0.00 | 0.00 | 80 | 1013.6 |
| 20260505070223 | 53 | 54 | 14.0 | 14.0 | 0.00 | 0.00 | 0.00 | 80 | 1013.6 |
| 20260505070123 | 53 | 60 | 15.0 | 17.0 | 0.00 | 0.00 | 0.00 | 79 | 1013.6 |
| 20260505070023 | 53 | 51 | 14.0 | 18.0 | 0.00 | 0.00 | 0.00 | 80 | 1013.5 |
| 20260505065923 | 53 | 55 | 13.0 | 17.0 | 0.00 | 0.00 | 0.00 | 79 | 1013.6 |
| 20260505065823 | 53 | 53 | 14.0 | 15.0 | 0.00 | 0.00 | 0.00 | 80 | 1013.5 |
| 20260505065723 | 53 | 49 | 12.0 | 16.0 | 0.00 | 0.00 | 0.00 | 80 | 1013.6 |
| 20260505065623 | 53 | 59 | 9.0 | 12.0 | 0.00 | 0.00 | 0.00 | 80 | 1013.6 |
| 20260505065523 | 52 | 53 | 12.0 | 15.0 | 0.00 | 0.00 | 0.00 | 80 | 1013.6 |
| 20260505065422 | 52 | 50 | 10.0 | 14.0 | 0.00 | 0.00 | 0.00 | 80 | 1013.6 |
| 20260505065322 | 52 | 58 | 13.0 | 13.0 | 0.00 | 0.00 | 0.00 | 80 | 1013.6 |
| 20260505065222 | 52 | 58 | 13.0 | 20.0 | 0.00 | 0.00 | 0.00 | 80 | 1013.7 |
| 20260505065122 | 52 | 52 | 13.0 | 16.0 | 0.00 | 0.00 | 0.00 | 80 | 1013.7 |
| 20260505065022 | 52 | 60 | 13.0 | 17.0 | 0.00 | 0.00 | 0.00 | 80 | 1013.7 |
| 20260505064922 | 52 | 53 | 12.0 | 15.0 | 0.00 | 0.00 | 0.00 | 81 | 1013.7 |
| 20260505064822 | 52 | 45 | 12.0 | 14.0 | 0.00 | 0.00 | 0.00 | 81 | 1013.7 |
| 20260505064722 | 52 | 54 | 12.0 | 13.0 | 0.00 | 0.00 | 0.00 | 81 | 1013.7 |
| 20260505064622 | 52 | 54 | 12.0 | 14.0 | 0.00 | 0.00 | 0.00 | 81 | 1013.7 |
| 20260505064522 | 52 | 52 | 12.0 | 14.0 | 0.00 | 0.00 | 0.00 | 81 | 1013.7 |
| 20260505064422 | 52 | 53 | 13.0 | 15.0 | 0.00 | 0.00 | 0.00 | 81 | 1013.7 |
| 20260505064322 | 52 | 53 | 12.0 | 16.0 | 0.00 | 0.00 | 0.00 | 81 | 1013.6 |
| 20260505064222 | 52 | 50 | 13.0 | 16.0 | 0.00 | 0.00 | 0.00 | 81 | 1013.6 |
| 20260505064122 | 52 | 54 | 12.0 | 16.0 | 0.00 | 0.00 | 0.00 | 81 | 1013.7 |
| 20260505064022 | 52 | 55 | 12.0 | 14.0 | 0.00 | 0.00 | 0.00 | 81 | 1013.7 |
| 20260505063922 | 52 | 47 | 13.0 | 14.0 | 0.00 | 0.00 | 0.00 | 81 | 1013.7 |
| 20260505063752 | 52 | 54 | 10.0 | 14.0 | 0.00 | 0.00 | 0.00 | 81 | 1013.7 |
| 20260505063651 | 52 | 58 | 10.0 | 13.0 | 0.00 | 0.00 | 0.00 | 81 | 1013.7 |
| 20260505063551 | 52 | 55 | 10.0 | 13.0 | 0.00 | 0.00 | 0.00 | 81 | 1013.8 |
| 20260505063421 | 52 | 48 | 12.0 | 14.0 | 0.00 | 0.00 | 0.00 | 81 | 1013.8 |
| 20260505063321 | 52 | 56 | 12.0 | 16.0 | 0.00 | 0.00 | 0.00 | 81 | 1013.8 |
| 20260505063221 | 52 | 52 | 9.0 | 14.0 | 0.00 | 0.00 | 0.00 | 81 | 1013.8 |
| 20260505063121 | 52 | 51 | 10.0 | 13.0 | 0.00 | 0.00 | 0.00 | 81 | 1013.8 |
| 20260505063021 | 52 | 54 | 9.0 | 12.0 | 0.00 | 0.00 | 0.00 | 81 | 1013.8 |
| 20260505062921 | 52 | 54 | 8.0 | 10.0 | 0.00 | 0.00 | 0.00 | 81 | 1013.8 |
| 20260505062821 | 52 | 55 | 9.0 | 9.0 | 0.00 | 0.00 | 0.00 | 81 | 1013.7 |
| 20260505062721 | 52 | 56 | 12.0 | 12.0 | 0.00 | 0.00 | 0.00 | 81 | 1013.7 |
| 20260505062621 | 52 | 55 | 12.0 | 16.0 | 0.00 | 0.00 | 0.00 | 81 | 1013.7 |
| 20260505062521 | 52 | 47 | 10.0 | 14.0 | 0.00 | 0.00 | 0.00 | 81 | 1013.7 |
| 20260505062421 | 52 | 56 | 9.0 | 13.0 | 0.00 | 0.00 | 0.00 | 81 | 1013.7 |
| 20260505062321 | 52 | 53 | 12.0 | 12.0 | 0.00 | 0.00 | 0.00 | 80 | 1013.7 |
| 20260505062220 | 52 | 52 | 13.0 | 17.0 | 0.00 | 0.00 | 0.00 | 81 | 1013.7 |
| 20260505062120 | 52 | 50 | 12.0 | 14.0 | 0.00 | 0.00 | 0.00 | 81 | 1013.7 |
| 20260505062020 | 52 | 56 | 12.0 | 13.0 | 0.00 | 0.00 | 0.00 | 81 | 1013.7 |
| 20260505061920 | 52 | 57 | 12.0 | 14.0 | 0.00 | 0.00 | 0.00 | 81 | 1013.7 |
| 20260505061820 | 52 | 55 | 10.0 | 13.0 | 0.00 | 0.00 | 0.00 | 80 | 1013.7 |
| 20260505061720 | 52 | 49 | 10.0 | 13.0 | 0.00 | 0.00 | 0.00 | 81 | 1013.7 |
| 20260505061620 | 52 | 53 | 12.0 | 12.0 | 0.00 | 0.00 | 0.00 | 80 | 1013.7 |
| 20260505061520 | 52 | 64 | 12.0 | 16.0 | 0.00 | 0.00 | 0.00 | 81 | 1013.7 |
| 20260505061420 | 52 | 49 | 12.0 | 13.0 | 0.00 | 0.00 | 0.00 | 80 | 1013.7 |
| 20260505061320 | 52 | 55 | 12.0 | 15.0 | 0.00 | 0.00 | 0.00 | 81 | 1013.7 |
| 20260505061220 | 52 | 55 | 10.0 | 15.0 | 0.00 | 0.00 | 0.00 | 80 | 1013.6 |
| 20260505061120 | 52 | 51 | 12.0 | 16.0 | 0.00 | 0.00 | 0.00 | 81 | 1013.6 |
| 20260505061020 | 52 | 59 | 9.0 | 16.0 | 0.00 | 0.00 | 0.00 | 81 | 1013.6 |
| 20260505060920 | 52 | 54 | 10.0 | 14.0 | 0.00 | 0.00 | 0.00 | 81 | 1013.6 |
| 20260505060820 | 52 | 52 | 13.0 | 15.0 | 0.00 | 0.00 | 0.00 | 81 | 1013.6 |
| 20260505060720 | 52 | 50 | 14.0 | 20.0 | 0.00 | 0.00 | 0.00 | 81 | 1013.6 |
| 20260505060619 | 52 | 57 | 10.0 | 20.0 | 0.00 | 0.00 | 0.00 | 81 | 1013.6 |
| 20260505060519 | 52 | 61 | 12.0 | 13.0 | 0.00 | 0.00 | 0.00 | 81 | 1013.6 |
| 20260505060419 | 52 | 57 | 12.0 | 15.0 | 0.00 | 0.00 | 0.00 | 81 | 1013.6 |
| 20260505060319 | 52 | 54 | 10.0 | 15.0 | 0.00 | 0.00 | 0.00 | 81 | 1013.6 |
| 20260505060219 | 52 | 53 | 9.0 | 13.0 | 0.00 | 0.00 | 0.00 | 81 | 1013.6 |
| 20260505060119 | 52 | 54 | 9.0 | 12.0 | 0.00 | 0.00 | 0.00 | 81 | 1013.6 |
| 20260505060019 | 52 | 56 | 9.0 | 15.0 | 0.00 | 0.00 | 0.00 | 81 | 1013.6 |
| 20260505055919 | 52 | 56 | 12.0 | 12.0 | 0.00 | 0.00 | 0.00 | 81 | 1013.6 |
| 20260505055819 | 52 | 58 | 12.0 | 14.0 | 0.00 | 0.00 | 0.00 | 81 | 1013.6 |
| 20260505055719 | 52 | 58 | 9.0 | 14.0 | 0.00 | 0.00 | 0.00 | 81 | 1013.6 |
| 20260505055619 | 52 | 56 | 10.0 | 12.0 | 0.00 | 0.00 | 0.00 | 82 | 1013.6 |
| 20260505055449 | 52 | 57 | 8.0 | 12.0 | 0.00 | 0.00 | 0.00 | 82 | 1013.6 |
| 20260505055349 | 52 | 51 | 9.0 | 12.0 | 0.00 | 0.00 | 0.00 | 82 | 1013.6 |
| 20260505055249 | 52 | 52 | 9.0 | 12.0 | 0.00 | 0.00 | 0.00 | 82 | 1013.6 |
| 20260505055148 | 52 | 60 | 9.0 | 15.0 | 0.00 | 0.00 | 0.00 | 82 | 1013.6 |
| 20260505055048 | 52 | 61 | 8.0 | 10.0 | 0.00 | 0.00 | 0.00 | 82 | 1013.6 |
| 20260505054948 | 52 | 63 | 8.0 | 10.0 | 0.00 | 0.00 | 0.00 | 82 | 1013.5 |
| 20260505054848 | 52 | 63 | 9.0 | 10.0 | 0.00 | 0.00 | 0.00 | 82 | 1013.5 |
| 20260505054748 | 52 | 63 | 10.0 | 13.0 | 0.00 | 0.00 | 0.00 | 82 | 1013.5 |
| 20260505054648 | 52 | 51 | 12.0 | 17.0 | 0.00 | 0.00 | 0.00 | 83 | 1013.5 |
| 20260505054548 | 52 | 55 | 13.0 | 17.0 | 0.00 | 0.00 | 0.00 | 83 | 1013.5 |
| 20260505054448 | 52 | 61 | 10.0 | 18.0 | 0.00 | 0.00 | 0.00 | 83 | 1013.5 |
| 20260505054348 | 52 | 55 | 10.0 | 12.0 | 0.00 | 0.00 | 0.00 | 83 | 1013.5 |
| 20260505054248 | 52 | 57 | 10.0 | 13.0 | 0.00 | 0.00 | 0.00 | 83 | 1013.5 |
| 20260505054148 | 52 | 58 | 10.0 | 13.0 | 0.00 | 0.00 | 0.00 | 83 | 1013.5 |
| 20260505054048 | 52 | 61 | 10.0 | 14.0 | 0.00 | 0.00 | 0.00 | 83 | 1013.5 |
| 20260505053948 | 52 | 54 | 10.0 | 12.0 | 0.00 | 0.00 | 0.00 | 83 | 1013.5 |
| 20260505053848 | 52 | 54 | 13.0 | 16.0 | 0.00 | 0.00 | 0.00 | 84 | 1013.5 |
| 20260505053748 | 52 | 58 | 12.0 | 16.0 | 0.00 | 0.00 | 0.00 | 84 | 1013.5 |
| 20260505053648 | 52 | 60 | 10.0 | 15.0 | 0.00 | 0.00 | 0.00 | 84 | 1013.5 |
| 20260505053548 | 52 | 58 | 10.0 | 12.0 | 0.00 | 0.00 | 0.00 | 84 | 1013.5 |
| 20260505053447 | 52 | 59 | 12.0 | 15.0 | 0.00 | 0.00 | 0.00 | 84 | 1013.5 |
| 20260505053347 | 52 | 58 | 12.0 | 14.0 | 0.00 | 0.00 | 0.00 | 84 | 1013.5 |
| 20260505053247 | 52 | 59 | 9.0 | 15.0 | 0.00 | 0.00 | 0.00 | 84 | 1013.5 |
| 20260505053147 | 52 | 53 | 9.0 | 13.0 | 0.00 | 0.00 | 0.00 | 84 | 1013.5 |
| 20260505053047 | 52 | 55 | 9.0 | 13.0 | 0.00 | 0.00 | 0.00 | 84 | 1013.4 |
| 20260505052947 | 52 | 56 | 8.0 | 12.0 | 0.00 | 0.00 | 0.00 | 84 | 1013.4 |
| 20260505052847 | 52 | 55 | 9.0 | 12.0 | 0.00 | 0.00 | 0.00 | 84 | 1013.4 |
| 20260505052747 | 52 | 55 | 10.0 | 12.0 | 0.00 | 0.00 | 0.00 | 84 | 1013.4 |
| 20260505052647 | 52 | 54 | 10.0 | 13.0 | 0.00 | 0.00 | 0.00 | 84 | 1013.4 |
| 20260505052547 | 52 | 52 | 12.0 | 13.0 | 0.00 | 0.00 | 0.00 | 84 | 1013.4 |
| 20260505052447 | 52 | 57 | 10.0 | 13.0 | 0.00 | 0.00 | 0.00 | 84 | 1013.4 |
| 20260505052347 | 52 | 56 | 10.0 | 13.0 | 0.00 | 0.00 | 0.00 | 84 | 1013.4 |
| 20260505052247 | 52 | 51 | 10.0 | 16.0 | 0.00 | 0.00 | 0.00 | 85 | 1013.4 |
| 20260505052146 | 52 | 60 | 12.0 | 15.0 | 0.00 | 0.00 | 0.00 | 85 | 1013.4 |
| 20260505052046 | 52 | 53 | 12.0 | 16.0 | 0.00 | 0.00 | 0.00 | 85 | 1013.4 |
| 20260505051946 | 52 | 51 | 10.0 | 14.0 | 0.00 | 0.00 | 0.00 | 85 | 1013.4 |
| 20260505051846 | 52 | 52 | 13.0 | 16.0 | 0.00 | 0.00 | 0.00 | 85 | 1013.3 |
| 20260505051746 | 52 | 60 | 10.0 | 15.0 | 0.00 | 0.00 | 0.00 | 85 | 1013.3 |
| 20260505051646 | 52 | 45 | 10.0 | 12.0 | 0.00 | 0.00 | 0.00 | 85 | 1013.3 |
| 20260505051546 | 52 | 54 | 9.0 | 13.0 | 0.00 | 0.00 | 0.00 | 85 | 1013.3 |
| 20260505051446 | 52 | 50 | 9.0 | 12.0 | 0.00 | 0.00 | 0.00 | 85 | 1013.3 |
| 20260505051346 | 52 | 54 | 12.0 | 16.0 | 0.00 | 0.00 | 0.00 | 85 | 1013.3 |
| 20260505051246 | 52 | 56 | 9.0 | 16.0 | 0.00 | 0.00 | 0.00 | 85 | 1013.3 |
| 20260505051146 | 52 | 58 | 10.0 | 13.0 | 0.00 | 0.00 | 0.00 | 85 | 1013.3 |
| 20260505051046 | 52 | 56 | 10.0 | 14.0 | 0.00 | 0.00 | 0.00 | 85 | 1013.3 |
| 20260505050946 | 52 | 58 | 9.0 | 12.0 | 0.00 | 0.00 | 0.00 | 85 | 1013.2 |
| 20260505050845 | 52 | 56 | 10.0 | 12.0 | 0.00 | 0.00 | 0.00 | 85 | 1013.2 |
| 20260505050745 | 52 | 59 | 12.0 | 16.0 | 0.00 | 0.00 | 0.00 | 85 | 1013.2 |
| 20260505050645 | 52 | 59 | 10.0 | 13.0 | 0.00 | 0.00 | 0.00 | 85 | 1013.2 |
| 20260505050545 | 52 | 54 | 9.0 | 12.0 | 0.00 | 0.00 | 0.00 | 85 | 1013.2 |
| 20260505050445 | 52 | 60 | 9.0 | 12.0 | 0.00 | 0.00 | 0.00 | 85 | 1013.2 |
| 20260505050345 | 52 | 57 | 9.0 | 12.0 | 0.00 | 0.00 | 0.00 | 85 | 1013.2 |
| 20260505050245 | 52 | 56 | 9.0 | 12.0 | 0.00 | 0.00 | 0.00 | 85 | 1013.2 |
| 20260505050145 | 52 | 60 | 9.0 | 12.0 | 0.00 | 0.00 | 0.00 | 85 | 1013.2 |
| 20260505041712 | 53 | 63 | 9.0 | 12.0 | 0.00 | 0.00 | 0.00 | 86 | 1013.3 |
| 20260505041612 | 53 | 61 | 10.0 | 13.0 | 0.00 | 0.00 | 0.00 | 86 | 1013.3 |
| 20260505041512 | 53 | 63 | 9.0 | 13.0 | 0.00 | 0.00 | 0.00 | 86 | 1013.3 |
| 20260505041412 | 53 | 68 | 8.0 | 12.0 | 0.00 | 0.00 | 0.00 | 86 | 1013.3 |
| 20260505041312 | 53 | 65 | 9.0 | 10.0 | 0.00 | 0.00 | 0.00 | 86 | 1013.3 |
| 20260505041212 | 53 | 55 | 8.0 | 12.0 | 0.00 | 0.00 | 0.00 | 86 | 1013.3 |
| 20260505041111 | 53 | 60 | 8.0 | 10.0 | 0.00 | 0.00 | 0.00 | 86 | 1013.3 |
| 20260505041011 | 53 | 63 | 8.0 | 9.0 | 0.00 | 0.00 | 0.00 | 85 | 1013.3 |
| 20260505040911 | 53 | 58 | 7.0 | 9.0 | 0.00 | 0.00 | 0.00 | 85 | 1013.4 |
| 20260505040811 | 53 | 64 | 7.0 | 8.0 | 0.00 | 0.00 | 0.00 | 85 | 1013.3 |
| 20260505040711 | 53 | 56 | 6.0 | 8.0 | 0.00 | 0.00 | 0.00 | 85 | 1013.3 |
| 20260505040611 | 53 | 60 | 7.0 | 9.0 | 0.00 | 0.00 | 0.00 | 85 | 1013.3 |
| 20260505040511 | 53 | 57 | 7.0 | 9.0 | 0.00 | 0.00 | 0.00 | 85 | 1013.3 |
| 20260505040411 | 53 | 64 | 8.0 | 9.0 | 0.00 | 0.00 | 0.00 | 85 | 1013.3 |
| 20260505040311 | 53 | 60 | 9.0 | 10.0 | 0.00 | 0.00 | 0.00 | 85 | 1013.4 |
| 20260505040211 | 53 | 59 | 9.0 | 12.0 | 0.00 | 0.00 | 0.00 | 85 | 1013.4 |
| 20260505040111 | 53 | 54 | 8.0 | 12.0 | 0.00 | 0.00 | 0.00 | 85 | 1013.4 |
| 20260505040011 | 53 | 58 | 6.0 | 8.0 | 0.00 | 0.00 | 0.00 | 85 | 1013.4 |
| 20260505035911 | 53 | 62 | 8.0 | 9.0 | 0.00 | 0.00 | 0.00 | 85 | 1013.4 |
| 20260505035810 | 53 | 64 | 8.0 | 12.0 | 0.00 | 0.00 | 0.00 | 85 | 1013.4 |
| 20260505035710 | 53 | 59 | 7.0 | 12.0 | 0.00 | 0.00 | 0.00 | 85 | 1013.4 |
| 20260505035610 | 53 | 60 | 8.0 | 9.0 | 0.00 | 0.00 | 0.00 | 85 | 1013.4 |
| 20260505035510 | 53 | 65 | 8.0 | 10.0 | 0.00 | 0.00 | 0.00 | 85 | 1013.5 |
| 20260505035410 | 53 | 62 | 8.0 | 10.0 | 0.00 | 0.00 | 0.00 | 85 | 1013.4 |
| 20260505035310 | 53 | 64 | 8.0 | 10.0 | 0.00 | 0.00 | 0.00 | 85 | 1013.4 |
| 20260505035210 | 53 | 61 | 8.0 | 10.0 | 0.00 | 0.00 | 0.00 | 85 | 1013.4 |
| 20260505035110 | 53 | 59 | 8.0 | 12.0 | 0.00 | 0.00 | 0.00 | 85 | 1013.4 |
| 20260505035010 | 53 | 60 | 9.0 | 12.0 | 0.00 | 0.00 | 0.00 | 85 | 1013.4 |
| 20260505034910 | 53 | 56 | 8.0 | 12.0 | 0.00 | 0.00 | 0.00 | 85 | 1013.4 |
| 20260505034810 | 53 | 64 | 9.0 | 12.0 | 0.00 | 0.00 | 0.00 | 85 | 1013.4 |
| 20260505034710 | 53 | 64 | 8.0 | 12.0 | 0.00 | 0.00 | 0.00 | 85 | 1013.4 |
| 20260505034610 | 53 | 65 | 9.0 | 10.0 | 0.00 | 0.00 | 0.00 | 84 | 1013.5 |
| 20260505034510 | 53 | 63 | 10.0 | 13.0 | 0.00 | 0.00 | 0.00 | 85 | 1013.5 |
| 20260505034340 | 53 | 65 | 9.0 | 12.0 | 0.00 | 0.00 | 0.00 | 85 | 1013.5 |
| 20260505034240 | 53 | 69 | 12.0 | 13.0 | 0.00 | 0.00 | 0.00 | 85 | 1013.5 |
| 20260505034140 | 53 | 64 | 10.0 | 14.0 | 0.00 | 0.00 | 0.00 | 85 | 1013.5 |
| 20260505034040 | 53 | 69 | 8.0 | 13.0 | 0.00 | 0.00 | 0.00 | 85 | 1013.5 |
| 20260505033940 | 53 | 65 | 8.0 | 12.0 | 0.00 | 0.00 | 0.00 | 85 | 1013.5 |
| 20260505033839 | 53 | 68 | 8.0 | 12.0 | 0.00 | 0.00 | 0.00 | 85 | 1013.5 |
| 20260505033739 | 53 | 69 | 8.0 | 12.0 | 0.00 | 0.00 | 0.00 | 85 | 1013.5 |
| 20260505033609 | 53 | 65 | 9.0 | 12.0 | 0.00 | 0.00 | 0.00 | 85 | 1013.5 |
| 20260505033509 | 53 | 69 | 9.0 | 13.0 | 0.00 | 0.00 | 0.00 | 85 | 1013.6 |
| 20260505033409 | 53 | 67 | 10.0 | 12.0 | 0.00 | 0.00 | 0.00 | 84 | 1013.6 |
| 20260505033309 | 53 | 64 | 9.0 | 12.0 | 0.00 | 0.00 | 0.00 | 85 | 1013.6 |
| 20260505033209 | 53 | 65 | 8.0 | 10.0 | 0.00 | 0.00 | 0.00 | 84 | 1013.6 |
| 20260505033109 | 53 | 68 | 8.0 | 12.0 | 0.00 | 0.00 | 0.00 | 84 | 1013.6 |
| 20260505033009 | 53 | 66 | 8.0 | 12.0 | 0.00 | 0.00 | 0.00 | 85 | 1013.6 |
| 20260505032909 | 53 | 63 | 9.0 | 10.0 | 0.00 | 0.00 | 0.00 | 85 | 1013.6 |
| 20260505032809 | 53 | 69 | 10.0 | 12.0 | 0.00 | 0.00 | 0.00 | 85 | 1013.7 |
| 20260505032709 | 53 | 68 | 8.0 | 13.0 | 0.00 | 0.00 | 0.00 | 85 | 1013.7 |
| 20260505032608 | 53 | 65 | 8.0 | 10.0 | 0.00 | 0.00 | 0.00 | 85 | 1013.7 |
| 20260505032508 | 53 | 61 | 7.0 | 10.0 | 0.00 | 0.00 | 0.00 | 85 | 1013.7 |
| 20260505032408 | 53 | 73 | 7.0 | 8.0 | 0.00 | 0.00 | 0.00 | 85 | 1013.7 |
| 20260505032308 | 53 | 74 | 6.0 | 9.0 | 0.00 | 0.00 | 0.00 | 85 | 1013.7 |
| 20260505032208 | 53 | 65 | 6.0 | 7.0 | 0.00 | 0.00 | 0.00 | 85 | 1013.7 |
| 20260505032108 | 53 | 63 | 7.0 | 9.0 | 0.00 | 0.00 | 0.00 | 85 | 1013.7 |
| 20260505032008 | 53 | 70 | 7.0 | 9.0 | 0.00 | 0.00 | 0.00 | 84 | 1013.7 |
| 20260505031908 | 53 | 61 | 7.0 | 9.0 | 0.00 | 0.00 | 0.00 | 85 | 1013.7 |
| 20260505031808 | 53 | 65 | 8.0 | 9.0 | 0.00 | 0.00 | 0.00 | 85 | 1013.7 |
| 20260505031708 | 53 | 73 | 9.0 | 13.0 | 0.00 | 0.00 | 0.00 | 85 | 1013.7 |
| 20260505031608 | 53 | 68 | 7.0 | 12.0 | 0.00 | 0.00 | 0.00 | 85 | 1013.7 |
| 20260505031508 | 53 | 63 | 7.0 | 8.0 | 0.00 | 0.00 | 0.00 | 85 | 1013.7 |
| 20260505031408 | 53 | 67 | 8.0 | 9.0 | 0.00 | 0.00 | 0.00 | 85 | 1013.7 |
| 20260505031307 | 53 | 65 | 8.0 | 12.0 | 0.00 | 0.00 | 0.00 | 85 | 1013.7 |
| 20260505031207 | 53 | 67 | 8.0 | 9.0 | 0.00 | 0.00 | 0.00 | 85 | 1013.7 |
| 20260505031107 | 53 | 71 | 6.0 | 10.0 | 0.00 | 0.00 | 0.00 | 85 | 1013.7 |
| 20260505031007 | 53 | 64 | 6.0 | 10.0 | 0.00 | 0.00 | 0.00 | 85 | 1013.8 |
| 20260505030907 | 53 | 61 | 7.0 | 7.0 | 0.00 | 0.00 | 0.00 | 85 | 1013.8 |
| 20260505030807 | 53 | 66 | 8.0 | 10.0 | 0.00 | 0.00 | 0.00 | 85 | 1013.7 |
| 20260505030707 | 53 | 63 | 9.0 | 12.0 | 0.00 | 0.00 | 0.00 | 85 | 1013.7 |
| 20260505030607 | 53 | 67 | 7.0 | 12.0 | 0.00 | 0.00 | 0.00 | 85 | 1013.7 |
| 20260505030507 | 53 | 63 | 6.0 | 8.0 | 0.00 | 0.00 | 0.00 | 85 | 1013.7 |
| 20260505030407 | 53 | 64 | 7.0 | 8.0 | 0.00 | 0.00 | 0.00 | 85 | 1013.7 |
| 20260505030307 | 53 | 65 | 8.0 | 10.0 | 0.00 | 0.00 | 0.00 | 85 | 1013.7 |
| 20260505030207 | 53 | 63 | 7.0 | 10.0 | 0.00 | 0.00 | 0.00 | 85 | 1013.7 |
| 20260505030107 | 53 | 56 | 7.0 | 9.0 | 0.00 | 0.00 | 0.00 | 85 | 1013.7 |
| 20260505030007 | 53 | 56 | 7.0 | 9.0 | 0.00 | 0.00 | 0.00 | 85 | 1013.7 |
| 20260505025907 | 53 | 63 | 8.0 | 9.0 | 0.00 | 0.00 | 0.00 | 85 | 1013.7 |
| 20260505025807 | 53 | 66 | 7.0 | 9.0 | 0.00 | 0.00 | 0.00 | 85 | 1013.6 |
| 20260505025706 | 53 | 61 | 7.0 | 9.0 | 0.00 | 0.00 | 0.00 | 85 | 1013.6 |
| 20260505025606 | 53 | 66 | 7.0 | 10.0 | 0.00 | 0.00 | 0.00 | 85 | 1013.7 |
| 20260505025506 | 53 | 61 | 7.0 | 9.0 | 0.00 | 0.00 | 0.00 | 85 | 1013.7 |
| 20260505025406 | 53 | 68 | 7.0 | 10.0 | 0.00 | 0.00 | 0.00 | 85 | 1013.6 |
| 20260505025306 | 53 | 66 | 6.0 | 10.0 | 0.00 | 0.00 | 0.00 | 85 | 1013.6 |
| 20260505025206 | 53 | 63 | 6.0 | 9.0 | 0.00 | 0.00 | 0.00 | 85 | 1013.7 |
| 20260505025106 | 53 | 61 | 7.0 | 8.0 | 0.00 | 0.00 | 0.00 | 85 | 1013.6 |
| 20260505025006 | 53 | 59 | 8.0 | 10.0 | 0.00 | 0.00 | 0.00 | 85 | 1013.7 |
| 20260505024906 | 53 | 60 | 9.0 | 12.0 | 0.00 | 0.00 | 0.00 | 85 | 1013.7 |
| 20260505024806 | 53 | 60 | 8.0 | 10.0 | 0.00 | 0.00 | 0.00 | 85 | 1013.7 |
| 20260505024706 | 53 | 57 | 7.0 | 9.0 | 0.00 | 0.00 | 0.00 | 85 | 1013.7 |
| 20260505024606 | 53 | 58 | 8.0 | 8.0 | 0.00 | 0.00 | 0.00 | 85 | 1013.7 |
| 20260505024506 | 53 | 59 | 7.0 | 10.0 | 0.00 | 0.00 | 0.00 | 85 | 1013.7 |
| 20260505024405 | 53 | 58 | 8.0 | 9.0 | 0.00 | 0.00 | 0.00 | 85 | 1013.7 |
| 20260505024305 | 53 | 58 | 10.0 | 13.0 | 0.00 | 0.00 | 0.00 | 85 | 1013.7 |
| 20260505024205 | 53 | 58 | 8.0 | 13.0 | 0.00 | 0.00 | 0.00 | 85 | 1013.7 |
| 20260505024105 | 53 | 53 | 7.0 | 9.0 | 0.00 | 0.00 | 0.00 | 85 | 1013.7 |
| 20260505024005 | 53 | 59 | 8.0 | 9.0 | 0.00 | 0.00 | 0.00 | 85 | 1013.7 |
| 20260505023905 | 53 | 59 | 8.0 | 9.0 | 0.00 | 0.00 | 0.00 | 85 | 1013.7 |
| 20260505023805 | 53 | 53 | 8.0 | 9.0 | 0.00 | 0.00 | 0.00 | 85 | 1013.7 |
| 20260505023705 | 53 | 57 | 8.0 | 12.0 | 0.00 | 0.00 | 0.00 | 85 | 1013.7 |
| 20260505023605 | 53 | 60 | 8.0 | 12.0 | 0.00 | 0.00 | 0.00 | 85 | 1013.7 |
| 20260505023505 | 53 | 58 | 9.0 | 12.0 | 0.00 | 0.00 | 0.00 | 85 | 1013.7 |
| 20260505023405 | 53 | 59 | 9.0 | 12.0 | 0.00 | 0.00 | 0.00 | 85 | 1013.7 |
| 20260505023305 | 53 | 60 | 9.0 | 12.0 | 0.00 | 0.00 | 0.00 | 85 | 1013.7 |
| 20260505023205 | 53 | 60 | 9.0 | 10.0 | 0.00 | 0.00 | 0.00 | 85 | 1013.7 |
| 20260505023105 | 53 | 59 | 9.0 | 12.0 | 0.00 | 0.00 | 0.00 | 85 | 1013.7 |
| 20260505023005 | 53 | 58 | 9.0 | 12.0 | 0.00 | 0.00 | 0.00 | 85 | 1013.7 |
| 20260505022905 | 53 | 57 | 9.0 | 12.0 | 0.00 | 0.00 | 0.00 | 85 | 1013.7 |
| 20260505022804 | 53 | 62 | 7.0 | 12.0 | 0.00 | 0.00 | 0.00 | 85 | 1013.7 |
| 20260505022704 | 53 | 60 | 8.0 | 9.0 | 0.00 | 0.00 | 0.00 | 85 | 1013.7 |
| 20260505022604 | 53 | 62 | 8.0 | 10.0 | 0.00 | 0.00 | 0.00 | 85 | 1013.7 |
| 20260505022504 | 53 | 59 | 8.0 | 12.0 | 0.00 | 0.00 | 0.00 | 85 | 1013.7 |
| 20260505022404 | 53 | 57 | 9.0 | 10.0 | 0.00 | 0.00 | 0.00 | 85 | 1013.7 |
| 20260505022304 | 53 | 55 | 8.0 | 12.0 | 0.00 | 0.00 | 0.00 | 85 | 1013.7 |
| 20260505022204 | 53 | 55 | 9.0 | 12.0 | 0.00 | 0.00 | 0.00 | 85 | 1013.7 |
| 20260505022104 | 53 | 54 | 8.0 | 10.0 | 0.00 | 0.00 | 0.00 | 85 | 1013.7 |
| 20260505022004 | 53 | 52 | 9.0 | 12.0 | 0.00 | 0.00 | 0.00 | 85 | 1013.7 |
| 20260505021904 | 53 | 54 | 7.0 | 12.0 | 0.00 | 0.00 | 0.00 | 85 | 1013.7 |
| 20260505021804 | 53 | 56 | 8.0 | 9.0 | 0.00 | 0.00 | 0.00 | 85 | 1013.7 |
| 20260505021704 | 53 | 60 | 7.0 | 10.0 | 0.00 | 0.00 | 0.00 | 85 | 1013.7 |
| 20260505021604 | 53 | 62 | 8.0 | 10.0 | 0.00 | 0.00 | 0.00 | 85 | 1013.7 |
| 20260505021434 | 53 | 62 | 8.0 | 13.0 | 0.00 | 0.00 | 0.00 | 86 | 1013.7 |
| 20260505021334 | 53 | 58 | 8.0 | 9.0 | 0.00 | 0.00 | 0.00 | 86 | 1013.7 |
| 20260505021233 | 53 | 54 | 7.0 | 12.0 | 0.00 | 0.00 | 0.00 | 86 | 1013.7 |
| 20260505021133 | 53 | 56 | 7.0 | 8.0 | 0.00 | 0.00 | 0.00 | 86 | 1013.7 |
| 20260505021033 | 53 | 59 | 8.0 | 9.0 | 0.00 | 0.00 | 0.00 | 86 | 1013.7 |
| 20260505020933 | 53 | 66 | 7.0 | 12.0 | 0.00 | 0.00 | 0.00 | 86 | 1013.7 |
| 20260505020833 | 53 | 63 | 7.0 | 8.0 | 0.00 | 0.00 | 0.00 | 86 | 1013.7 |
| 20260505020733 | 53 | 57 | 7.0 | 9.0 | 0.00 | 0.00 | 0.00 | 86 | 1013.7 |
| 20260505020633 | 53 | 59 | 7.0 | 8.0 | 0.00 | 0.00 | 0.00 | 86 | 1013.7 |
| 20260505020533 | 53 | 57 | 8.0 | 12.0 | 0.00 | 0.00 | 0.00 | 86 | 1013.7 |
| 20260505020433 | 53 | 56 | 8.0 | 10.0 | 0.00 | 0.00 | 0.00 | 86 | 1013.7 |
| 20260505020333 | 53 | 64 | 7.0 | 12.0 | 0.00 | 0.00 | 0.00 | 86 | 1013.6 |
| 20260505020233 | 53 | 68 | 7.0 | 9.0 | 0.00 | 0.00 | 0.00 | 86 | 1013.6 |
| 20260505020133 | 53 | 63 | 7.0 | 8.0 | 0.00 | 0.00 | 0.00 | 85 | 1013.6 |
| 20260505020033 | 53 | 63 | 6.0 | 8.0 | 0.00 | 0.00 | 0.00 | 85 | 1013.6 |
| 20260505015933 | 53 | 62 | 6.0 | 7.0 | 0.00 | 0.00 | 0.00 | 85 | 1013.6 |
| 20260505015833 | 53 | 63 | 7.0 | 6.0 | 0.00 | 0.00 | 0.00 | 86 | 1013.6 |
| 20260505015733 | 53 | 62 | 8.0 | 9.0 | 0.00 | 0.00 | 0.00 | 85 | 1013.6 |
| 20260505015633 | 53 | 67 | 9.0 | 12.0 | 0.00 | 0.00 | 0.00 | 86 | 1013.6 |
| 20260505015532 | 53 | 67 | 10.0 | 12.0 | 0.00 | 0.00 | 0.00 | 86 | 1013.6 |
| 20260505015432 | 53 | 62 | 9.0 | 15.0 | 0.00 | 0.00 | 0.00 | 86 | 1013.7 |
| 20260505015332 | 53 | 65 | 9.0 | 12.0 | 0.00 | 0.00 | 0.00 | 86 | 1013.7 |
| 20260505015232 | 53 | 64 | 8.0 | 12.0 | 0.00 | 0.00 | 0.00 | 86 | 1013.7 |
| 20260505015132 | 53 | 63 | 9.0 | 12.0 | 0.00 | 0.00 | 0.00 | 86 | 1013.7 |
| 20260505015032 | 53 | 63 | 10.0 | 12.0 | 0.00 | 0.00 | 0.00 | 86 | 1013.7 |
| 20260505014932 | 53 | 62 | 10.0 | 12.0 | 0.00 | 0.00 | 0.00 | 86 | 1013.7 |
| 20260505014832 | 53 | 64 | 12.0 | 12.0 | 0.00 | 0.00 | 0.00 | 86 | 1013.7 |
| 20260505014732 | 53 | 63 | 12.0 | 14.0 | 0.00 | 0.00 | 0.00 | 86 | 1013.7 |
| 20260505014632 | 53 | 63 | 9.0 | 13.0 | 0.00 | 0.00 | 0.00 | 86 | 1013.7 |
| 20260505014532 | 53 | 64 | 9.0 | 12.0 | 0.00 | 0.00 | 0.00 | 86 | 1013.7 |
| 20260505014432 | 53 | 65 | 10.0 | 16.0 | 0.00 | 0.00 | 0.00 | 86 | 1013.7 |
| 20260505014332 | 53 | 63 | 8.0 | 12.0 | 0.00 | 0.00 | 0.00 | 86 | 1013.8 |
| 20260505014232 | 53 | 63 | 8.0 | 10.0 | 0.00 | 0.00 | 0.00 | 86 | 1013.8 |
| 20260505014132 | 53 | 60 | 8.0 | 12.0 | 0.00 | 0.00 | 0.00 | 86 | 1013.7 |
| 20260505014032 | 53 | 67 | 8.0 | 10.0 | 0.00 | 0.00 | 0.00 | 86 | 1013.7 |
| 20260505013931 | 53 | 63 | 8.0 | 12.0 | 0.00 | 0.00 | 0.00 | 86 | 1013.7 |
| 20260505013831 | 53 | 64 | 9.0 | 12.0 | 0.00 | 0.00 | 0.00 | 86 | 1013.8 |
| 20260505013731 | 53 | 65 | 8.0 | 12.0 | 0.00 | 0.00 | 0.00 | 86 | 1013.7 |
| 20260505013631 | 53 | 65 | 9.0 | 10.0 | 0.00 | 0.00 | 0.00 | 86 | 1013.7 |
| 20260505013531 | 53 | 63 | 10.0 | 14.0 | 0.00 | 0.00 | 0.00 | 86 | 1013.7 |
| 20260505013431 | 53 | 61 | 9.0 | 14.0 | 0.00 | 0.00 | 0.00 | 86 | 1013.7 |
| 20260505013331 | 53 | 63 | 8.0 | 12.0 | 0.00 | 0.00 | 0.00 | 86 | 1013.8 |
| 20260505013231 | 53 | 55 | 9.0 | 13.0 | 0.00 | 0.00 | 0.00 | 86 | 1013.8 |
| 20260505013131 | 53 | 66 | 8.0 | 12.0 | 0.00 | 0.00 | 0.00 | 86 | 1013.7 |
| 20260505013031 | 53 | 61 | 8.0 | 9.0 | 0.00 | 0.00 | 0.00 | 86 | 1013.7 |
| 20260505012931 | 53 | 61 | 8.0 | 9.0 | 0.00 | 0.00 | 0.00 | 86 | 1013.8 |
| 20260505012801 | 53 | 61 | 8.0 | 12.0 | 0.00 | 0.00 | 0.00 | 86 | 1013.8 |
| 20260505012700 | 53 | 62 | 8.0 | 12.0 | 0.00 | 0.00 | 0.00 | 86 | 1013.8 |
| 20260505012600 | 53 | 62 | 8.0 | 10.0 | 0.00 | 0.00 | 0.00 | 86 | 1013.8 |
| 20260505012500 | 53 | 56 | 9.0 | 12.0 | 0.00 | 0.00 | 0.00 | 86 | 1013.8 |
| 20260505012400 | 53 | 56 | 10.0 | 14.0 | 0.00 | 0.00 | 0.00 | 86 | 1013.8 |
| 20260505012300 | 53 | 54 | 10.0 | 12.0 | 0.00 | 0.00 | 0.00 | 86 | 1013.8 |
| 20260505012200 | 53 | 57 | 9.0 | 13.0 | 0.00 | 0.00 | 0.00 | 86 | 1013.9 |
| 20260505012100 | 53 | 59 | 9.0 | 12.0 | 0.00 | 0.00 | 0.00 | 86 | 1013.9 |
| 20260505012000 | 53 | 56 | 9.0 | 12.0 | 0.00 | 0.00 | 0.00 | 86 | 1013.9 |
| 20260505011900 | 53 | 57 | 8.0 | 12.0 | 0.00 | 0.00 | 0.00 | 86 | 1013.9 |
| 20260505011800 | 53 | 58 | 8.0 | 12.0 | 0.00 | 0.00 | 0.00 | 86 | 1013.9 |
| 20260505011700 | 53 | 60 | 10.0 | 12.0 | 0.00 | 0.00 | 0.00 | 86 | 1013.9 |
| 20260505011600 | 53 | 64 | 8.0 | 15.0 | 0.00 | 0.00 | 0.00 | 86 | 1013.9 |
| 20260505011500 | 53 | 60 | 7.0 | 13.0 | 0.00 | 0.00 | 0.00 | 86 | 1014.0 |
| 20260505011400 | 53 | 64 | 8.0 | 9.0 | 0.00 | 0.00 | 0.00 | 86 | 1014.0 |
| 20260505011300 | 53 | 61 | 9.0 | 12.0 | 0.00 | 0.00 | 0.00 | 86 | 1014.0 |
| 20260505011200 | 53 | 64 | 9.0 | 13.0 | 0.00 | 0.00 | 0.00 | 86 | 1014.0 |
| 20260505011059 | 53 | 65 | 9.0 | 12.0 | 0.00 | 0.00 | 0.00 | 86 | 1014.0 |
| 20260505010959 | 53 | 60 | 9.0 | 13.0 | 0.00 | 0.00 | 0.00 | 86 | 1014.0 |
| 20260505010859 | 53 | 65 | 10.0 | 13.0 | 0.00 | 0.00 | 0.00 | 86 | 1014.0 |
| 20260505010759 | 53 | 62 | 9.0 | 12.0 | 0.00 | 0.00 | 0.00 | 86 | 1014.0 |
| 20260505010659 | 53 | 63 | 10.0 | 14.0 | 0.00 | 0.00 | 0.00 | 86 | 1014.0 |
| 20260505010559 | 53 | 64 | 12.0 | 15.0 | 0.00 | 0.00 | 0.00 | 86 | 1014.0 |
| 20260505010459 | 53 | 65 | 12.0 | 16.0 | 0.00 | 0.00 | 0.00 | 86 | 1014.0 |
| 20260505010359 | 53 | 60 | 10.0 | 15.0 | 0.00 | 0.00 | 0.00 | 86 | 1014.0 |
| 20260505010259 | 53 | 61 | 8.0 | 14.0 | 0.00 | 0.00 | 0.00 | 86 | 1013.9 |
| 20260505010159 | 53 | 63 | 8.0 | 10.0 | 0.00 | 0.00 | 0.00 | 86 | 1013.9 |
| 20260505010059 | 53 | 65 | 8.0 | 12.0 | 0.00 | 0.00 | 0.00 | 86 | 1013.9 |
| 20260505005959 | 53 | 56 | 8.0 | 12.0 | 0.00 | 0.00 | 0.00 | 86 | 1013.9 |
| 20260505005859 | 53 | 59 | 7.0 | 9.0 | 0.00 | 0.00 | 0.00 | 86 | 1013.9 |
| 20260505005758 | 53 | 57 | 8.0 | 10.0 | 0.00 | 0.00 | 0.00 | 86 | 1014.0 |
| 20260505005658 | 53 | 59 | 8.0 | 12.0 | 0.00 | 0.00 | 0.00 | 86 | 1014.0 |
| 20260505005558 | 53 | 63 | 8.0 | 9.0 | 0.00 | 0.00 | 0.00 | 86 | 1014.0 |
| 20260505005458 | 53 | 58 | 8.0 | 12.0 | 0.00 | 0.00 | 0.00 | 86 | 1014.0 |
| 20260505005358 | 53 | 57 | 8.0 | 12.0 | 0.00 | 0.00 | 0.00 | 86 | 1014.1 |
| 20260505005258 | 53 | 62 | 8.0 | 12.0 | 0.00 | 0.00 | 0.00 | 86 | 1014.0 |
| 20260505005158 | 53 | 57 | 8.0 | 12.0 | 0.00 | 0.00 | 0.00 | 86 | 1014.1 |
| 20260505005028 | 53 | 55 | 10.0 | 12.0 | 0.00 | 0.00 | 0.00 | 86 | 1014.1 |
| 20260505004928 | 53 | 58 | 9.0 | 13.0 | 0.00 | 0.00 | 0.00 | 86 | 1014.1 |
| 20260505004828 | 53 | 56 | 9.0 | 10.0 | 0.00 | 0.00 | 0.00 | 86 | 1014.2 |
| 20260505004728 | 53 | 55 | 8.0 | 12.0 | 0.00 | 0.00 | 0.00 | 86 | 1014.2 |
| 20260505004628 | 53 | 53 | 9.0 | 12.0 | 0.00 | 0.00 | 0.00 | 86 | 1014.2 |
| 20260505004528 | 53 | 55 | 10.0 | 13.0 | 0.00 | 0.00 | 0.00 | 86 | 1014.2 |
| 20260505004428 | 53 | 54 | 10.0 | 13.0 | 0.00 | 0.00 | 0.00 | 86 | 1014.2 |
| 20260505004258 | 53 | 56 | 9.0 | 16.0 | 0.00 | 0.00 | 0.00 | 86 | 1014.2 |
| 20260505004157 | 53 | 56 | 10.0 | 12.0 | 0.00 | 0.00 | 0.00 | 86 | 1014.2 |
| 20260505004057 | 53 | 63 | 12.0 | 14.0 | 0.00 | 0.00 | 0.00 | 87 | 1014.2 |
| 20260505003958 | 53 | 61 | 12.0 | 16.0 | 0.00 | 0.00 | 0.00 | 87 | 1014.1 |
| 20260505003857 | 53 | 49 | 10.0 | 13.0 | 0.00 | 0.00 | 0.00 | 87 | 1014.1 |
| 20260505003757 | 53 | 57 | 9.0 | 13.0 | 0.00 | 0.00 | 0.00 | 87 | 1014.1 |
| 20260505003657 | 53 | 61 | 9.0 | 12.0 | 0.00 | 0.00 | 0.00 | 87 | 1014.1 |
| 20260505003557 | 53 | 59 | 8.0 | 12.0 | 0.00 | 0.00 | 0.00 | 87 | 1014.1 |
| 20260505003457 | 53 | 50 | 8.0 | 8.0 | 0.00 | 0.00 | 0.00 | 87 | 1014.1 |
| 20260505003357 | 53 | 58 | 10.0 | 13.0 | 0.00 | 0.00 | 0.00 | 87 | 1014.1 |
| 20260505003257 | 53 | 62 | 10.0 | 14.0 | 0.00 | 0.00 | 0.00 | 87 | 1014.1 |
| 20260505003157 | 53 | 58 | 9.0 | 12.0 | 0.00 | 0.00 | 0.00 | 87 | 1014.1 |
| 20260505003057 | 53 | 58 | 9.0 | 12.0 | 0.00 | 0.00 | 0.00 | 87 | 1014.1 |
| 20260505002956 | 53 | 57 | 10.0 | 12.0 | 0.00 | 0.00 | 0.00 | 87 | 1014.1 |
| 20260505002856 | 53 | 61 | 13.0 | 15.0 | 0.00 | 0.00 | 0.00 | 87 | 1014.1 |
| 20260505002756 | 53 | 58 | 12.0 | 14.0 | 0.00 | 0.00 | 0.00 | 87 | 1014.1 |
| 20260505002656 | 53 | 61 | 12.0 | 16.0 | 0.00 | 0.00 | 0.00 | 87 | 1014.1 |
| 20260505002556 | 53 | 62 | 12.0 | 16.0 | 0.00 | 0.00 | 0.00 | 87 | 1014.1 |
| 20260505002456 | 53 | 55 | 12.0 | 16.0 | 0.00 | 0.00 | 0.00 | 87 | 1014.0 |
| 20260505002356 | 53 | 57 | 10.0 | 13.0 | 0.00 | 0.00 | 0.00 | 87 | 1014.1 |
| 20260505002256 | 53 | 55 | 10.0 | 12.0 | 0.00 | 0.00 | 0.00 | 87 | 1014.0 |
| 20260505002156 | 53 | 58 | 10.0 | 14.0 | 0.00 | 0.00 | 0.00 | 87 | 1014.0 |
| 20260505002026 | 53 | 59 | 10.0 | 14.0 | 0.00 | 0.00 | 0.00 | 87 | 1014.0 |
| 20260505001856 | 53 | 55 | 13.0 | 14.0 | 0.00 | 0.00 | 0.00 | 87 | 1014.1 |
| 20260505001726 | 53 | 58 | 14.0 | 16.0 | 0.00 | 0.00 | 0.00 | 87 | 1014.0 |
| 20260505001556 | 53 | 58 | 13.0 | 15.0 | 0.00 | 0.00 | 0.00 | 87 | 1014.0 |
| 20260505001456 | 53 | 60 | 13.0 | 15.0 | 0.00 | 0.00 | 0.00 | 87 | 1014.0 |
| 20260505001356 | 53 | 59 | 13.0 | 16.0 | 0.00 | 0.00 | 0.00 | 87 | 1014.1 |
| 20260505001226 | 53 | 60 | 13.0 | 15.0 | 0.00 | 0.00 | 0.00 | 87 | 1014.1 |
| 20260505001056 | 53 | 56 | 12.0 | 16.0 | 0.00 | 0.00 | 0.00 | 87 | 1014.1 |
| 20260505000956 | 53 | 55 | 10.0 | 16.0 | 0.00 | 0.00 | 0.00 | 87 | 1014.1 |
| 20260505000826 | 53 | 57 | 9.0 | 13.0 | 0.00 | 0.00 | 0.00 | 87 | 1014.1 |
| 20260505000726 | 53 | 60 | 9.0 | 12.0 | 0.00 | 0.00 | 0.00 | 88 | 1014.1 |
| 20260505000626 | 53 | 64 | 8.0 | 13.0 | 0.00 | 0.00 | 0.00 | 87 | 1014.2 |
| 20260505000526 | 53 | 60 | 9.0 | 12.0 | 0.00 | 0.00 | 0.00 | 87 | 1014.1 |
| 20260505000428 | 53 | 63 | 9.0 | 12.0 | 0.00 | 0.00 | 0.00 | 87 | 1014.1 |
| 20260505000256 | 53 | 60 | 8.0 | 10.0 | 0.00 | 0.00 | 0.00 | 87 | 1014.2 |
| 20260505000156 | 53 | 66 | 8.0 | 12.0 | 0.00 | 0.00 | 0.00 | 87 | 1014.2 |
| 20260505000026 | 54 | 63 | 9.0 | 12.0 | 0.00 | 0.00 | 0.00 | 88 | 1014.2 |
| 20260504235856 | 54 | 64 | 10.0 | 12.0 | 0.00 | 0.00 | 0.00 | 88 | 1014.3 |
| 20260504235756 | 53 | 65 | 12.0 | 13.0 | 0.00 | 0.00 | 0.00 | 88 | 1014.3 |
| 20260504235626 | 53 | 66 | 9.0 | 14.0 | 0.00 | 0.00 | 0.00 | 88 | 1014.3 |
| 20260504235526 | 53 | 64 | 10.0 | 12.0 | 0.00 | 0.00 | 0.00 | 88 | 1014.3 |
| 20260504235356 | 53 | 67 | 9.0 | 13.0 | 0.00 | 0.00 | 0.00 | 88 | 1014.3 |
| 20260504235226 | 53 | 64 | 10.0 | 12.0 | 0.00 | 0.00 | 0.00 | 88 | 1014.3 |
| 20260504235126 | 53 | 63 | 9.0 | 13.0 | 0.00 | 0.00 | 0.00 | 88 | 1014.3 |
| 20260504234956 | 53 | 62 | 9.0 | 12.0 | 0.00 | 0.00 | 0.00 | 88 | 1014.3 |
| 20260504234856 | 53 | 61 | 9.0 | 12.0 | 0.00 | 0.00 | 0.00 | 88 | 1014.3 |
| 20260504234756 | 53 | 67 | 9.0 | 12.0 | 0.00 | 0.00 | 0.00 | 88 | 1014.3 |
| 20260504234656 | 54 | 63 | 10.0 | 13.0 | 0.00 | 0.00 | 0.00 | 87 | 1014.3 |
| 20260504234556 | 54 | 64 | 9.0 | 13.0 | 0.00 | 0.00 | 0.00 | 87 | 1014.3 |
| 20260504234426 | 53 | 65 | 9.0 | 12.0 | 0.00 | 0.00 | 0.00 | 87 | 1014.4 |
| 20260504234326 | 54 | 66 | 9.0 | 13.0 | 0.00 | 0.00 | 0.00 | 87 | 1014.4 |
| 20260504234226 | 54 | 66 | 9.0 | 12.0 | 0.00 | 0.00 | 0.00 | 87 | 1014.4 |